     2.11           OBSERVATION DATA    M (MIXED)           RINEX VERSION / TYPE
teqc 2009Oct19 20120718 10:58:47UTC                         PGM / RUN BY / DATE
MSXP|IAx86-PII|bcc32 5.0|MSWin95->XP|486/DX+                COMMENT
BIT 2 OF LLI FLAGS DATA COLLECTED UNDER A/S CONDITION       COMMENT
-Unknown-                                                   MARKER NAME
-Unknown- -Unknown-                                         OBSERVER / AGENCY
OEM_06688 JPS DELTA 3.1.1 Oct,05,2009                       REC # / TYPE / VERS
-Unknown- -Unknown-                                         ANT # / TYPE
  2506671.2620  -818198.6963  5788183.1736                  APPROX POSITION XYZ
        0.0000        0.0000        0.0000                  ANTENNA: DELTA H/E/N
     1     1                                                WAVELENGTH FACT L1/2
     7    L1    L2    C1    P1    P2    S1    S2            # / TYPES OF OBSERV
    15                                                      LEAP SECONDS
SNR is mapped to RINEX snr flag value [0-9]                 COMMENT
L1 & L2: min(max(int(snr_dBHz/6), 0), 9)                    COMMENT
pseudorange smoothing corrections not applied               COMMENT
rx board ID: 3VUX3BX3TWC943W1DWLC                           COMMENT
  2012     3    25    10    43   10.0000000     GPS         TIME OF FIRST OBS
                                                            END OF HEADER
 12  3 25 10 43 10.0000000  0 15G02G05R02G29G04G31R10R18G30R11R19R01
                                G25R03G10
 111124985.692 7  86590899.14545  21146380.568    21146381.012    21146386.079
        44.500          32.5004
 128544820.515 6 100164794.76744  24461264.850    24461268.471    24461274.512
        38.750          11.7504
  98385582.743 5  76522124.932 6  19270861.461    19270862.052    19270879.386
        34.250          38.000
 127885943.262 6  99651380.58247  24335881.993    24335880.938    24335889.851
        37.000          26.2504
 109699389.601 6                  20875095.075
        36.500
 132335880.360 5                  25182688.431
        34.250
 118802810.920 6  92402197.413 6  22287112.918    22287111.964    22287132.551
        36.250          39.000
 103721578.462 6  80672341.442 7  20316032.509    20316029.937    20316048.920
        41.750          43.000
 127640942.958 7                  24289257.938
        42.500
 107437213.826 6  83562315.178 6  21043822.093    21043820.741    21043838.858
        40.750          35.750
 112885657.537 7  87799959.749 7  22111003.963    22111003.661    22111019.951
        47.000          44.000
 116952900.125 5  90963314.473 6  21878445.429    21878449.108    21878467.611
        32.500          34.000
 130189682.310 5 101446469.12046  24774266.835    24774263.939    24774278.266
        32.000          22.0004
 108364927.701 6  84283844.356 7  21225528.643    21225527.129    21225545.591
        40.250          41.250
 107344421.776 6  83645005.03243  20426963.289    20426962.539    20426971.284
        36.000          20.2504
 12  3 25 10 43 20.0000000  0 16G02G05R02G29G23G04G31R10R18G30R11R19
                                R01G25R03G10
 111116608.915 8  86584371.88047  21144786.806    21144786.617    21144792.223
        50.000          43.7504
 128513669.106 7 100140521.04347  24455336.529    24455337.605    24455346.467
        44.750          34.5004
 102840265.740 7  79986878.600 7  19272226.326    19272224.324    19272240.923
        45.750          43.250
 127864159.711 6  99634406.77746  24331735.846    24331735.777    24331745.823
        40.500          28.7504
 111931036.533 8  87218952.18746  21299755.607    21299758.239    21299764.265
        50.000          37.5004
 109721125.676 6                  20879228.545
        39.000
 132372635.631 6                  25189677.489
        37.750
 118836716.947 7  92428568.831 6  22293472.583    22293472.829    22293490.957
        45.250          37.000
 103734680.682 8  80682532.096 7  20318597.264    20318596.283    20318614.643
        48.750          44.750
 127624618.237 7                  24286151.485
        45.500
 107431013.683 7  83557493.263 6  21042606.968    21042605.829    21042623.469
        47.250          38.250
 112860003.807 6  87780006.797 6  22105977.080    22105975.997    22105996.641
        41.500          38.750
 116995856.982 7  90996725.759 6  21886483.450    21886482.463    21886502.313
        43.500          39.000
 130219954.495 6 101470058.30743  24780026.885    24780025.144    24780037.357
        37.750          19.0004
 113156024.995 7  88010253.842 7  21220317.870    21220318.151    21220333.858
        47.750          44.250
 107338153.816 8  83640121.06846  20425770.714    20425768.825    20425778.014
        48.250          40.2504
 12  3 25 10 43 30.0000000  0 17G02G05R02G29G23G04G31R10R18G30R11R19
                                R01G25R03G10R17
 111108289.203 8  86577889.01646  21143203.857    21143203.356    21143208.740
        48.000          40.7504
 128482531.558 6 100116258.03146  24449411.536    24449412.015    24449418.416
        41.000          28.5004
 102847598.643 8  79992581.991 8  19273598.419    19273598.569    19273614.590
        49.000          47.000
 127842422.489 7  99617468.71546  24327599.729    24327598.950    24327608.441
        42.000          32.7504
 111950277.138 8  87233944.92346  21303419.293    21303418.594    21303424.974
        49.500          38.7504
 109742919.993 8  85513945.51847  20883378.608    20883378.440    20883385.149
        49.750          42.2504
 132409429.875 6 103176210.28847  25196678.042    25196681.166    25196693.970
        36.000          32.0004
 118870699.862 7  92455000.015 6  22299846.872    22299845.778    22299866.074
        43.750          36.750
 103747870.192 7  80692790.625 7  20321179.862    20321179.643    20321198.224
        47.750          44.250
 127608352.975 6  99435070.34544  24283055.783    24283056.491    24283065.727
        40.250          26.0004
 107424903.385 7  83552740.826 6  21041409.978    21041409.552    21041426.733
        45.750          35.500
 112834412.389 7  87760102.387 7  22100967.610    22100965.962    22100982.864
        44.750          40.500
 117038841.385 7  91030158.164 6  21894525.778    21894523.536    21894541.862
        43.000          36.500
 130250275.162 6 101493684.86246  24785794.215    24785793.714    24785806.299
        38.250          27.2504
 113566151.011 7  88329240.881 7  21215115.367    21215115.799    21215132.818
        47.750          43.250
 107331942.910 8  83635281.45046  20424588.132    20424587.472    20424596.415
        48.000          41.5004
 113846345.623 7                  22299180.452
        43.750
 12  3 25 10 43 40.0000000  0 21R12G02G05R02G13G29G23G04G31R10G20R18
                                G30R11R19R01G25G07R03G10R17
 119583681.646 7                  23422949.045
        43.750
 111100038.502 8  86571459.88646  21141633.754    21141632.551    21141638.343
        49.250          41.2504
 128451410.322 6 100092007.71347  24443489.154    24443488.671    24443495.206
        41.250          29.7504
 102855015.249 8  79998350.465 8  19274987.808    19274988.263    19275004.356
        50.500          47.750
 108705473.928 8  84705562.99247  20685962.747    20685962.819    20685970.413
        52.250          42.7504
 127820731.112 7  99600566.43947  24323471.626    24323471.596    24323480.299
        45.000          33.2504
 111969586.225 8  87248990.96646  21307093.351    21307092.824    21307099.473
        51.250          40.5004
 109764786.696 8  85530984.50947  20887539.877    20887539.502    20887546.835
        51.000          42.2504
 132446256.845 6 103204906.55947  25203689.201    25203689.789    25203700.557
        39.000          33.7504
 118904759.733 7  92481491.017 6  22306236.604    22306234.727    22306255.266
        46.250          38.500
 128939432.617 6 100472284.80244  24536356.916    24536357.722    24536368.515
        38.250          26.5004
 103761158.086 8  80703125.640 7  20323781.326    20323782.294    20323800.803
        49.500          45.250
 127592146.043 6  99422441.54544  24279969.948    24279970.379    24279979.625
        40.750          27.2504
 107418889.820 7  83548063.582 6  21040231.917    21040231.953    21040249.544
        47.750          36.750
 112808884.663 7  87740247.532 7  22095967.867    22095965.657    22095982.817
        47.250          42.250
 117081860.146 7  91063617.172 6  21902572.607    21902571.575    21902590.168
        44.500          37.250
 130280643.440 6 101517348.49046  24791574.624    24791574.639    24791585.198
        41.500          28.5004
 131834279.533 7 102728006.68247  25087227.503    25087227.590    25087239.477
        43.000          29.5004
 113538353.045 8  88307620.236 7  21209922.539    21209923.040    21209939.408
        50.250          44.250
 107325803.516 8  83630497.48947  20423421.037    20423419.508    20423428.379
        49.500          42.0004
 113892252.166 7  88582895.008 7  22308173.038    22308172.013    22308188.528
        46.250          43.500
 12  3 25 10 43 50.0000000  0 21R12G02G05R02G13G29G23G04G31R10G20R18
                                G30R11R19R01G25G07R03G10R17
 119547309.610 7  92981246.052 7  23415824.366    23415824.102    23415847.123
        44.000          40.750
 111091845.547 8  86565075.76146  21140075.043    21140073.643    21140079.653
        49.750          41.2504
 128420300.678 6 100067766.41247  24437569.943    24437570.051    24437575.882
        41.750          30.2504
 102862502.157 8  80004173.611 8  19276391.133    19276391.091    19276407.802
        51.000          48.000
 108701486.979 8  84702456.27647  20685204.608    20685203.957    20685211.611
        52.750          43.0004
 127799082.141 7  99583697.17547  24319352.604    24319353.095    24319361.489
        43.500          32.7504
 111988953.636 8  87264082.45346  21310779.063    21310777.956    21310784.450
        51.750          41.2504
 109786713.503 8  85548070.33547  20891712.496    20891711.582    20891719.868
        51.500          42.2504
 132483115.000 6 103233627.16947  25210703.298    25210703.448    25210713.731
        41.000          33.0004
 118938891.036 7  92508037.539 6  22312638.732    22312638.345    22312658.380
        46.750          38.250
 128982793.615 6 100506072.54044  24544608.814    24544609.075    24544620.518
        39.000          26.7504
 108503693.209 8  84391764.178 7  20326403.128    20326402.600    20326420.906
        50.000          45.500
 127575994.694 6  99409856.06144  24276898.544    24276897.779    24276907.097
        41.750          27.7504
 107412964.879 8  83543455.287 6  21039072.008    21039071.195    21039087.983
        48.250          37.000
 112783415.378 8  87720438.116 7  22090977.971    22090977.090    22090994.028
        48.000          42.750
 117124906.535 7  91097097.665 6  21910624.627    21910624.669    21910643.094
        45.250          37.750
 130311056.487 7 101541047.06846  24797361.131    24797360.666    24797371.087
        42.750          28.5004
 131802237.478 7 102703038.89147  25081130.621    25081130.204    25081141.485
        42.000          30.2504
 113510593.672 8  88286029.616 7  21204737.787    21204736.966    21204753.290
        50.500          44.250
 107319722.956 8  83625759.40546  20422263.235    20422262.297    20422271.312
        51.000          41.7504
 113938193.378 7  88618627.045 7  22317170.131    22317169.828    22317187.351
        45.750          43.000
 12  3 25 10 44  0.0000000  0 21R12G02G05R02G13G29G23G04G31R10G20R18
                                G30R11R19R01G25G07R03G10R17
 119510964.322 7  92952977.516 6  23408706.631    23408705.536    23408727.304
        42.250          40.750
 111083714.230 8  86558739.66746  21138526.588    21138526.372    21138532.463
        49.250          41.5004
 128389206.497 7 100043537.18347  24431652.961    24431651.348    24431659.535
        42.250          30.7504
 102870063.245 8  80010054.449 8  19277808.588    19277808.204    19277824.726
        51.500          48.000
 108697571.496 8  84699405.24947  20684459.273    20684458.799    20684466.258
        52.750          43.0004
 127777479.490 7  99566863.97947  24315241.493    24315241.759    24315250.160
        43.500          32.5004
 112008383.196 8  87279222.35546  21314475.654    21314475.558    21314481.847
        51.750          41.2504
 109808704.060 8  85565205.83047  20895896.712    20895896.535    20895904.434
        51.250          42.5004
 132520007.952 6 103262374.79747  25217726.296    25217723.370    25217733.884
        39.750          33.0004
 118973097.634 7  92534642.647 6  22319055.570    22319055.912    22319076.487
        47.750          39.750
 129026167.411 6 100539870.23244  24552863.866    24552864.337    24552874.224
        40.250          26.7504
 108517774.178 8  84402716.040 7  20329040.762    20329040.255    20329059.031
        50.750          45.500
 127559902.894 7  99397317.00244  24273836.958    24273834.581    24273845.365
        42.000          28.0004
 107407132.346 7  83538918.868 6  21037929.196    21037929.097    21037946.221
        47.750          37.250
 112758008.096 7  87700676.948 7  22086001.078    22086000.421    22086016.082
        47.750          42.000
 117167984.182 7  91130602.478 6  21918683.669    21918683.018    21918700.308
        45.000          37.500
 130341517.854 7 101564783.21646  24803159.177    24803158.050    24803168.420
        42.500          27.5004
 131770205.377 7 102678078.84146  25075034.380    25075033.762    25075044.822
        44.000          30.7504
 113482876.867 8  88264472.108 7  21199559.077    21199559.721    21199575.652
        51.250          44.250
 107313705.218 8  83621070.24947  20421118.211    20421117.276    20421125.880
        50.000          42.0004
 113984172.751 7  88654388.736 7  22326178.010    22326176.325    22326193.326
        46.000          43.000
 12  3 25 10 44 10.0000000  0 21R12G02G05R02G13G29G23G04G31R10G20R18
                                G30R11R19R01G25G07R03G10R17
 125007095.192 6  97227746.275 7  23401592.244    23401590.493    23401612.654
        41.250          40.500
 111075640.735 8  86552448.63246  21136990.760    21136990.157    21136996.450
        49.000          41.5004
 128358123.939 6 100019317.01747  24425736.973    24425737.840    24425744.732
        41.250          30.2504
 102877694.567 8  80015989.919 8  19279239.155    19279238.343    19279254.691
        51.250          47.750
 108693723.641 8  84696406.92347  20683727.240    20683726.541    20683734.051
        52.250          43.2504
 127755919.369 7  99550063.87947  24311139.276    24311138.791    24311146.142
        44.750          32.0004
 112027870.845 8  87294407.53046  21318184.830    21318184.173    21318190.286
        51.750          41.2504
 109830754.555 8  85582388.03747  20900092.664    20900092.286    20900100.704
        51.500          42.2504
 132556931.878 6 103291146.66947  25224749.696    25224749.175    25224761.277
        40.250          32.7504
 119007375.312 8  92561303.050 6  22325486.571    22325486.436    22325508.021
        48.750          40.000
 129069550.073 6 100573674.82844  24561120.201    24561119.290    24561128.320
        40.000          26.0004
 108531947.268 8  84413739.547 8  20331694.708    20331695.286    20331713.798
        50.250          45.750
 127543866.673 6  99384821.27344  24270783.905    24270783.776    24270794.853
        39.500          25.5004
 107401388.623 7  83534451.527 6  21036803.691    21036803.916    21036821.493
        45.500          37.750
 112732659.219 7  87680961.156 7  22081036.610    22081035.096    22081052.026
        47.750          42.250
 117211089.146 7  91164128.537 6  21926746.290    21926746.761    21926764.350
        45.500          37.750
 130372023.662 7 101588553.93946  24808962.979    24808962.973    24808974.650
        43.250          28.0004
 131738179.447 7 102653123.60346  25068940.214    25068940.166    25068950.746
        44.000          32.2504
 113455198.718 8  88242944.663 7  21194388.727    21194389.473    21194405.183
        50.750          44.250
 107307746.309 8  83616426.94546  20419984.900    20419983.365    20419991.837
        52.250          41.7504
 114030186.346 7  88690177.043 7  22335188.014    22335189.858    22335206.388
        45.500          43.250
 12  3 25 10 44 20.0000000  0 21R12G02G05R02G13G29G23G04G31R10G20R18
                                G30R11R19R01G25G07R03G10R17
 124969115.846 6  97198206.837 6  23394480.411    23394481.284    23394502.596
        41.500          40.500
 111067625.607 8  86546203.06746  21135466.138    21135464.834    21135470.629
        49.250          41.7504
 128327053.461 6  99995106.29147  24419825.069    24419824.820    24419832.213
        40.000          29.0004
 102885396.488 8  80021980.305 8  19280682.108    19280681.688    19280697.826
        51.500          48.000
 108689943.912 8  84693461.68647  20683007.939    20683007.159    20683015.020
        52.750          43.2504
 127734402.650 7  99533297.73147  24307044.609    24307044.789    24307051.507
        44.250          31.7504
 112047416.970 8  87309638.27046  21321903.770    21321903.338    21321909.709
        52.000          41.2504
 109852865.424 8  85599617.28147  20904300.368    20904299.379    20904308.100
        51.250          42.7504
 132593887.081 6 103319942.75847  25231781.847    25231781.904    25231793.167
        39.250          33.7504
 119041724.555 8  92588019.132 6  22331930.457    22331929.981    22331951.209
        48.500          40.500
 129112941.867 6 100607486.55244  24569375.442    24569374.600    24569386.981
        38.000          26.7504
 108546212.062 8  84424834.375 8  20334367.768    20334368.197    20334385.906
        50.500          45.750
 127527886.706 6  99372369.38444  24267743.365    24267741.122    24267755.009
        38.750          26.2504
 112408324.398 7  87428736.708 6  21035696.320    21035695.379    21035715.126
        45.500          37.750
 112707369.426 7  87661291.338 7  22076082.498    22076081.473    22076098.396
        47.750          42.500
 117254221.831 7  91197676.148 6  21934816.524    21934815.726    21934833.519
        45.250          37.000
 130402574.182 7 101612359.49947  24814776.282    24814776.573    24814788.001
        44.000          29.7504
 131706160.147 7 102628173.51246  25062847.541    25062846.377    25062858.441
        45.500          32.5004
 113427559.701 8  88221447.641 7  21189226.070    21189226.058    21189241.560
        50.250          44.000
 107301846.747 8  83611829.89847  20418861.529    20418860.285    20418869.474
        50.500          42.0004
 114076234.460 7  88725992.210 7  22344208.433    22344208.628    22344226.832
        46.000          43.500
 12  3 25 10 44 30.0000000  0 21R12G02G05R02G13G29G23G04G31R10G20R18
                                G30R11R19R01G25G07R03G10R17
 124931163.115 7  97168688.128 6  23387373.510    23387375.930    23387399.778
        42.750          41.250
 111059670.535 8  86540004.31246  21133952.336    21133951.263    21133956.947
        49.500          41.5004
 128295996.699 6  99970906.25047  24413914.882    24413913.869    24413922.995
        38.750          28.5004
 102893170.649 8  80028026.875 8  19282139.060    19282138.448    19282154.823
        51.000          48.000
 108686233.814 8  84690570.69547  20682301.738    20682300.989    20682308.966
        52.500          43.2504
 127712930.760 7  99516566.48247  24302957.338    24302957.757    24302964.967
        43.500          31.0004
 112067023.203 8  87324915.83846  21325635.029    21325634.489    21325640.287
        51.750          41.0004
 109875038.091 8  85616894.67847  20908519.668    20908518.817    20908527.831
        51.500          42.5004
 132630875.101 6 103348764.50547  25238819.823    25238821.397    25238831.380
        37.000          32.0004
 119076146.722 8  92614791.915 6  22338387.471    22338388.149    22338408.064
        49.000          39.500
 129156344.289 6 100641306.57544  24577633.903    24577633.190    24577644.579
        39.750          26.5004
 108560570.495 8  84436002.055 8  20337056.061    20337057.371    20337076.450
        50.750          46.000
 127511964.715 6  99359962.61144  24264713.069    24264710.988    24264724.590
        37.750          25.5004
 112402500.996 7  87424207.394 6  21034605.693    21034605.421    21034625.447
        46.250          38.250
 112682140.244 7  87641668.649 7  22071139.778    22071140.042    22071156.620
        47.500          42.250
 117297383.682 7  91231246.468 6  21942890.309    21942890.264    21942908.746
        46.250          37.000
 130433170.967 7 101636201.11347  24820599.394    24820598.800    24820611.661
        44.500          30.7504
 131674149.164 7 102603229.91247  25056756.483    25056754.781    25056765.360
        46.000          33.2504
 113399961.455 8  88199982.334 7  21184071.025    21184070.428    21184086.464
        50.250          44.250
 107296008.199 8  83607280.36647  20417751.164    20417749.647    20417758.002
        51.750          42.0004
 114122318.528 7  88761835.352 7  22353236.045    22353235.646    22353252.713
        45.750          42.750
 12  3 25 10 44 40.0000000  0 21R12G02G05R02G13G29G23G04G31R10G20R18
                                G30R11R19R01G25G07R03G10R17
 124893235.244 7  97139188.735 7  23380276.643    23380275.615    23380299.119
        44.750          41.750
 111051773.673 8  86533850.90946  21132449.426    21132448.541    21132454.480
        49.500          41.7504
 128264951.832 6  99946715.48147  24408006.636    24408006.708    24408016.613
        39.000          28.5004
 102901015.211 8  80034128.197 8  19283608.894    19283608.505    19283625.068
        51.250          48.000
 108682591.655 8  84687732.65747  20681608.639    20681607.986    20681615.852
        52.500          43.2504
 127691501.984 7  99499868.80047  24298880.235    24298879.393    24298887.988
        43.250          31.0004
 112086687.524 8  87340238.68146  21329377.263    21329376.613    21329382.726
        52.500          41.0004
 109897270.669 8  85634218.76147  20912750.315    20912749.395    20912758.500
        51.000          42.5004
 132667893.877 6 103377610.21047  25245865.761    25245864.460    25245875.927
        36.500          32.7504
 119110639.790 8  92641619.839 6  22344857.661    22344857.889    22344880.052
        49.000          40.000
 129199755.619 6 100675133.48044  24585897.271    24585894.268    24585905.983
        39.250          26.0004
 108575020.636 8  84447241.044 7  20339764.506    20339764.437    20339782.488
        50.500          45.750
 127496098.836 6  99347599.59144  24261695.703    24261691.832    24261704.543
        40.500          25.7504
 112396770.949 7  87419750.722 6  21033533.300    21033532.559    21033553.008
        46.500          38.750
 112656970.121 8  87622091.897 7  22066210.527    22066209.478    22066226.093
        48.000          42.250
 117340572.738 7  91264837.932 6  21950968.493    21950969.539    21950988.303
        46.500          36.750
 130463812.166 7 101660077.38747  24826428.897    24826429.889    24826441.104
        46.000          30.7504
 131642144.893 7 102578291.53747  25050664.731    25050664.827    25050676.686
        45.000          33.2504
 113372402.412 8  88178547.523 7  21178921.751    21178922.041    21178938.650
        50.750          44.500
 107290228.779 8  83602776.93847  20416650.665    20416649.819    20416658.477
        50.750          42.0004
 114168436.707 7  88797705.010 7  22362269.178    22362268.201    22362285.637
        47.000          42.750
 12  3 25 10 44 50.0000000  0 21R12G02G05R02G13G29G23G04G31R10G20R18
                                G30R11R19R01G25G07R03G10R17
 124855335.741 7  97109711.392 7  23373182.444    23373181.674    23373203.307
        46.250          42.000
 111043938.287 8  86527745.42446  21130958.186    21130957.125    21130963.336
        48.750          41.5004
 128233922.243 6  99922536.60447  24402100.331    24402101.660    24402110.545
        40.000          29.7504
 102908933.348 8  80040286.751 8  19285092.648    19285092.453    19285108.465
        51.000          48.250
 108679020.621 8  84684950.03147  20680929.268    20680928.665    20680936.343
        52.750          43.5004
 127670119.426 7  99483207.07347  24294811.311    24294811.527    24294819.352
        43.250          31.5004
 112106413.157 8  87355609.29646  21333130.821    21333130.329    21333136.184
        52.500          41.2504
 109919566.381 8  85651592.03647  20916993.092    20916992.088    20917001.159
        50.250          42.2504
 132704946.611 6 103406482.49646  25252916.124    25252915.719    25252927.144
        39.250          33.5004
 119145207.014 8  92668505.445 6  22351341.138    22351343.272    22351363.526
        49.500          39.750
 129243178.646 6 100708969.53344  24594160.613    24594156.446    24594169.915
        39.000          25.2504
 108589565.735 8  84458553.901 8  20342488.621    20342489.392    20342507.925
        50.500          45.750
 127480292.390 6  99335282.94244  24258686.524    24258685.466    24258695.278
        41.250          25.7504
 112391137.423 7  87415369.084 6  21032478.462    21032478.759    21032499.226
        46.500          38.500
 118013024.375 7  91787912.052 7  22061292.111    22061291.413    22061308.825
        47.750          42.250
 117383792.233 7  91298453.078 6  21959054.912    21959054.018    21959072.791
        46.500          36.750
 130494500.805 7 101683990.61247  24832269.229    24832269.508    24832279.934
        45.000          29.7504
 131610150.573 7 102553360.94047  25044577.664    25044576.833    25044588.033
        45.500          34.2504
 113344885.726 8  88157145.657 7  21173782.753    21173782.106    21173798.181
        51.000          45.250
 107284511.817 8  83598322.13046  20415564.163    20415561.771    20415570.585
        51.250          41.7504
 114214591.665 7  88833603.306 7  22371308.595    22371308.074    22371326.304
        46.750          41.500
 12  3 25 10 45  0.0000000  0 21R12G02G05R02G13G29G23G04G31R10G20R18
                                G30R11R19R01G25G07R03G10R17
 124817461.323 7  97080253.553 7  23366092.857    23366091.325    23366113.015
        47.000          42.250
 111036161.205 8  86521685.35546  21129477.703    21129477.238    21129483.750
        49.500          41.2504
 128202904.731 6  99898367.14547  24396198.665    24396198.944    24396207.788
        40.250          30.2504
 102916921.676 8  80046499.888 8  19286589.833    19286589.227    19286606.027
        51.000          48.250
 108675517.449 8  84682220.29147  20680262.032    20680261.888    20680269.541
        52.750          43.2504
 127648780.172 7  99466579.13547  24290750.448    24290749.993    24290757.652
        43.750          30.5004
 112126196.830 8  87371025.13546  21336895.666    21336895.015    21336900.837
        52.500          41.0004
 109941921.812 8  85669011.83847  20921246.961    20921246.260    20921255.163
        50.250          42.2504
 132742029.850 6 103435378.42946  25259973.784    25259972.078    25259983.749
        40.250          32.7504
 119179844.708 8  92695445.859 6  22357838.186    22357840.764    22357861.641
        49.000          39.250
 129286610.411 6 100742812.38944  24602425.004    24602422.941    24602434.348
        39.250          24.5004
 108604202.203 8  84469937.812 8  20345233.245    20345231.317    20345249.560
        50.500          46.250
 127464542.311 6  99323010.21044  24255688.215    24255687.442    24255699.440
        40.750          25.5004
 112385597.268 7  87411060.089 6  21031441.936    21031442.427    21031461.788
        47.250          38.500
 117986779.236 7  91767499.182 7  22056385.735    22056385.420    22056402.640
        47.250          42.250
 117427038.704 7  91332089.202 6  21967145.570    21967144.700    21967162.190
        45.750          37.000
 130525233.527 7 101707938.19447  24838116.840    24838116.171    24838128.627
        44.500          29.7504
 131578163.143 7 102528435.69647  25038490.324    25038489.640    25038501.254
        45.750          34.7504
 113317408.201 8  88135774.266 7  21168648.783    21168649.098    21168664.645
        51.250          45.000
 107278853.963 8  83593913.44746  20414486.028    20414485.351    20414493.757
        51.750          41.7504
 119761758.860 7  93148068.202 7  22380356.874    22380354.860    22380373.378
        46.250          41.750
 12  3 25 10 45 10.0000000  0 21R12G02G05R02G13G29G23G04G31R10G20R18
                                G30R11R19R01G25G07R03G10R17
 124779613.513 7  97050816.408 7  23359006.971    23359005.430    23359027.405
        47.750          42.500
 111028443.542 8  86515671.59046  21128010.099    21128009.059    21128014.758
        50.250          41.7504
 128171900.504 6  99874208.02547  24390299.217    24390299.394    24390309.077
        40.500          29.7504
 102924981.540 8  80052768.668 8  19288100.487    19288099.713    19288116.346
        51.250          48.000
 108672083.352 8  84679544.37247  20679608.781    20679608.628    20679616.081
        52.750          43.5004
 127627485.554 7  99449986.00747  24286698.418    24286697.602    24286705.013
        43.250          31.0004
 112146039.575 8  87386487.01646  21340671.812    21340670.751    21340676.792
        52.500          41.0004
 109964338.194 8  85686479.14747  20925512.573    20925511.950    20925521.186
        50.750          42.2504
 132779144.523 7 103464298.82046  25267036.412    25267036.052    25267047.297
        43.500          32.0004
 119214554.023 8  92722441.978 7  22364348.737    22364352.373    22364373.628
        48.750          39.750
 129330052.001 6 100776662.91143  24610692.068    24610690.572    24610703.946
        40.000          23.7504
 108618931.572 8  84481393.988 8  20347990.209    20347990.652    20348008.772
        51.000          46.000
 127448849.831 6  99310782.32744  24252701.344    24252702.124    24252714.385
        39.000          26.7504
 112380151.840 7  87406824.764 6  21030423.520    21030422.902    21030442.380
        47.750          39.000
 117960597.537 7  91747135.666 7  22051491.917    22051491.245    22051508.121
        47.250          42.250
 117470313.306 7  91365747.206 6  21975239.657    21975240.242    21975258.229
        46.250          36.750
 130556011.347 7 101731920.90747  24843973.888    24843972.146    24843985.208
        44.000          29.5004
 131546183.770 7 102503516.72147  25032405.074    25032404.828    25032415.015
        45.500          34.7504
 113289971.039 8  88114434.236 7  21163523.058    21163523.448    21163539.624
        50.250          44.250
 107273256.575 8  83589551.81747  20413422.248    20413420.107    20413428.864
        50.250          42.0004
 119810207.659 7  93185750.565 7  22389408.346    22389409.575    22389426.888
        46.750          42.250
 12  3 25 10 45 20.0000000  0 21R12G02G05R02G13G29G23G04G31R10G20R18
                                G30R11R19R01G25G07R03G10R17
 124741796.014 7  97021402.836 7  23351925.984    23351926.461    23351947.077
        46.500          42.250
 111020789.003 8  86509707.01546  21126553.018    21126552.082    21126558.138
        49.500          41.5004
 128140913.245 6  99850062.12447  24384403.421    24384402.890    24384412.088
        41.000          31.0004
 102933116.457 8  80059095.825 8  19289624.119    19289624.176    19289640.740
        51.250          48.000
 108668721.997 8  84676925.13247  20678969.293    20678968.571    20678976.623
        52.500          43.0004
 127606239.076 7  99433430.35847  24282654.289    24282653.932    24282663.724
        44.000          31.7504
 112165944.909 8  87401997.65446  21344459.777    21344458.530    21344464.601
        52.500          40.7504
 109986819.020 8  85703996.66047  20929790.731    20929790.186    20929798.826
        50.000          42.0004
 132816294.393 7 103493246.60346  25274106.243    25274105.371    25274113.870
        43.000          31.0004
 119249338.751 8  92749496.749 6  22370880.108    22370877.620    22370899.130
        48.000          39.000
 129373506.907 6 100810523.81143  24618960.491    24618958.468    24618972.480
        40.250          23.0004
 108633757.464 8  84492925.232 7  20350768.640    20350767.921    20350786.727
        50.500          45.750
 127433218.710 6  99298602.24144  24249729.645    24249726.231    24249739.719
        39.000          26.2504
 112374804.650 8  87402665.829 6  21029422.549    21029422.998    21029441.583
        48.500          38.750
 117934483.174 7  91726824.506 7  22046610.378    22046609.020    22046625.572
        47.250          42.500
 117513619.511 7  91399429.804 6  21983342.541    21983341.434    21983359.155
        46.750          37.750
 130586837.844 7 101755941.50347  24849841.027    24849838.443    24849851.403
        44.250          29.5004
 131514216.193 7 102478606.95647  25026320.936    25026321.322    25026332.010
        44.000          34.7504
 113262578.129 8  88093128.645 7  21158406.278    21158406.362    21158422.623
        50.750          45.500
 107267723.129 8  83585240.06646  20412368.130    20412367.365    20412375.714
        51.500          41.7504
 119858696.302 7  93223463.935 7  22398468.854    22398469.822    22398487.771
        45.250          41.500
 12  3 25 10 45 30.0000000  0 21R12G02G05R02G13G29G23G04G31R10G20R18
                                G30R11R19R01G25G07R03G10R17
 124704005.190 7  96992010.020 7  23344850.291    23344851.239    23344873.477
        44.750          42.000
 111013194.085 8  86503788.89846  21125107.242    21125106.996    21125113.100
        49.500          41.5004
 128109939.373 7  99825926.65047  24378510.200    24378509.141    24378517.571
        42.000          31.0004
 102941322.642 8  80065478.412 8  19291162.741    19291161.976    19291178.531
        51.250          48.000
 108665429.721 8  84674359.72547  20678342.823    20678342.311    20678350.147
        52.250          43.2504
 127585037.312 7  99416909.60647  24278619.329    24278619.766    24278627.432
        44.750          32.0004
 112185909.179 8  87417554.22546  21348258.111    21348258.004    21348263.652
        52.000          40.7504
 110009360.489 8  85721561.43247  20934080.150    20934079.499    20934088.079
        50.750          42.2504
 132853475.500 7 103522218.77945  25281181.085    25281180.716    25281189.239
        44.000          27.5004
 119284194.718 7  92776606.923 6  22377421.747    22377416.375    22377437.528
        47.000          38.000
 129416971.362 6 100844392.14243  24627231.280    24627230.212    24627244.117
        40.250          21.0004
 108648675.774 8  84504528.359 8  20353561.878    20353562.442    20353581.086
        50.750          45.750
 127417645.201 7  99286467.06144  24246765.388    24246764.051    24246775.611
        42.500          27.7504
 112369552.227 8  87398580.617 6  21028441.262    21028439.817    21028459.166
        48.000          38.500
 117908432.347 7  91706562.761 7  22041737.174    22041739.494    22041755.845
        46.000          42.250
 117556953.683 7  91433134.120 6  21991448.203    21991448.464    21991465.031
        46.750          38.250
 130617709.101 7 101779997.00147  24855715.418    24855713.491    24855725.674
        44.000          30.5004
 131482256.796 7 102453703.57847  25020239.289    25020239.226    25020250.156
        43.000          34.2504
 113235225.842 8  88071854.642 7  21153297.308    21153296.828    21153312.669
        50.500          45.000
 107262250.210 8  83580975.44546  20411326.905    20411325.745    20411334.172
        49.750          41.7504
 119907220.875 7  93261205.237 7  22407538.400    22407537.908    22407555.569
        45.500          41.500
 12  3 25 10 45 40.0000000  0 21R12G02G05R02G13G29G23G04G31R10G20R18
                                G30R11R19R01G25G07R03G10R17
 124666239.757 7  96962636.989 7  23337782.324    23337781.602    23337803.562
        44.000          42.000
 111005657.259 8  86497916.05646  21123673.838    21123672.507    21123678.647
        49.500          41.7504
 128078977.267 7  99801800.32847  24372617.785    24372616.580    24372627.126
        42.250          31.5004
 102949598.751 8  80071915.382 8  19292713.094    19292712.896    19292730.020
        51.000          48.000
 108662204.982 8  84671846.94547  20677729.271    20677728.644    20677736.430
        52.250          43.2504
 127563878.648 7  99400422.36947  24274593.829    24274593.599    24274601.498
        44.250          32.5004
 112205930.785 8  87433155.47346  21352068.617    21352067.652    21352073.591
        52.250          41.0004
 110031961.183 8  85739172.36047  20938381.254    20938380.541    20938389.025
        50.250          42.2504
 132890686.497 7 103551214.30845  25288263.397    25288262.950    25288271.662
        44.250          26.5004
 119319120.327 8  92803771.294 6  22383970.273    22383968.588    22383989.639
        48.250          38.250
 129460443.820 6 100878266.71642  24635504.166    24635504.481    24635515.570
        40.250          17.0004
 108663685.268 8  84516202.403 7  20356374.102    20356374.462    20356393.226
        50.250          45.750
 127402127.932 7  99274375.71844  24243812.258    24243812.081    24243821.827
        44.000          28.5004
 112364392.982 8  87394567.858 6  21027474.596    21027474.857    21027493.240
        48.000          38.750
 117882443.722 7  91686349.386 7  22036879.691    22036880.929    22036897.558
        47.250          42.000
 117600314.101 7  91466858.867 6  21999559.724    21999559.778    21999577.834
        46.500          38.500
 130648623.746 7 101804086.33947  24861597.793    24861596.828    24861608.789
        43.750          30.2504
 131450304.168 7 102428805.46147  25014159.411    25014159.273    25014169.826
        43.000          33.2504
 113207912.626 8  88050611.033 7  21148194.963    21148194.418    21148210.430
        50.500          45.250
 107256836.167 8  83576756.71146  20410296.654    20410295.751    20410303.858
        52.000          41.7504
 119955779.800 7  93298973.264 7  22416613.181    22416612.488    22416630.826
        44.250          41.500
 12  3 25 10 45 50.0000000  0 21R12G02G05R02G13G29G23G04G31R10G20R18
                                G30R11R19R01G25G07R03G10R17
 124628501.286 7  96933284.924 7  23330717.281    23330716.567    23330738.461
        44.750          41.750
 110998179.940 8  86492089.59046  21122250.097    21122250.061    21122255.808
        50.000          41.2504
 128048028.395 7  99777684.34347  24366728.323    24366726.242    24366735.593
        42.250          31.5004
 102957945.966 8  80078407.654 8  19294277.866    19294277.141    19294293.692
        51.500          48.250
 108659049.186 8  84669387.88147  20677128.898    20677128.142    20677135.712
        52.000          43.0004
 127542764.611 7  99383969.91047  24270575.957    24270575.804    24270584.087
        45.000          33.0004
 112226011.060 8  87448802.43646  21355889.748    21355888.843    21355894.914
        52.000          41.0004
 110054622.380 8  85756830.42847  20942693.370    20942692.860    20942701.279
        51.000          42.2504
 132927928.235 7 103580233.82046  25295349.891    25295348.356    25295358.180
        45.250          27.5004
 119354116.916 7  92830990.854 6  22390532.478    22390533.527    22390554.564
        47.000          38.000
 129503925.473 6 100912148.47642  24643777.521    24643778.498    24643787.345
        40.250          16.0004
 108678786.842 8  84527948.078 7  20359203.634    20359203.223    20359221.897
        50.750          45.500
 127386668.417 7  99262329.35344  24240869.987    24240869.333    24240880.057
        43.750          29.0004
 112359328.192 7  87390628.559 6  21026528.080    21026527.003    21026544.307
        47.500          38.500
 117856518.922 7  91666185.664 7  22032032.017    22032034.901    22032051.149
        46.500          42.250
 117643702.005 7  91500604.996 6  22007675.597    22007675.570    22007694.823
        45.500          38.250
 130679582.766 7 101828210.20947  24867488.781    24867488.292    24867500.077
        43.000          29.0004
 131418359.926 7 102403913.87947  25008079.536    25008080.015    25008091.294
        43.500          33.2504
 113180639.895 8  88029398.917 7  21143099.757    21143099.484    21143116.089
        50.250          45.500
 107251482.407 8  83572584.95446  20409277.641    20409276.760    20409285.205
        49.750          41.7504
 120004374.140 7  93336768.853 7  22425695.246    22425693.576    22425711.561
        45.000          42.250
 12  3 25 10 46  0.0000000  0 21R12G02G05R02G13G29G23G04G31R10G20R18
                                G30R11R19R01G25G07R03G10R17
 124590790.140 7  96903954.095 7  23323657.540    23323656.485    23323678.693
        46.250          41.500
 110990762.503 8  86486309.76346  21120838.791    21120838.392    21120844.565
        49.750          41.5004
 128017093.113 7  99753578.96447  24360841.571    24360839.671    24360850.544
        42.750          31.7504
 102966364.584 8  80084955.459 8  19295854.250    19295854.946    19295871.431
        50.750          48.250
 108655962.645 8  84666982.78147  20676541.421    20676540.582    20676548.502
        51.750          43.0004
 127521695.718 7  99367552.68547  24266566.308    24266566.374    24266576.081
        44.750          33.5004
 112246150.193 8  87464495.26146  21359722.001    21359721.351    21359727.113
        52.250          40.5004
 110077344.132 8  85774535.69247  20947017.367    20947016.533    20947024.948
        50.500          42.2504
 132965201.206 7 103609277.54546  25302442.171    25302441.892    25302452.085
        43.750          29.5004
 119389184.236 8  92858265.429 6  22397111.756    22397112.841    22397132.628
        48.500          37.750
 129547416.657 6 100946037.73342  24652055.171    24652053.394    24652062.945
        40.750          14.0004
 108693981.121 8  84539765.845 7  20362048.676    20362049.746    20362068.480
        51.000          45.750
 127371267.050 7  99250328.27244  24237940.214    24237938.598    24237948.737
        44.000          29.0004
 112354358.307 7  87386763.100 6  21025598.444    21025597.110    21025615.382
        47.500          39.000
 117830658.391 7  91646071.931 7  22027199.071    22027200.498    22027216.567
        46.750          42.000
 117687117.687 7  91534372.714 6  22015797.574    22015797.386    22015816.953
        46.000          38.250
 130710586.697 7 101852369.13147  24873388.615    24873388.804    24873399.453
        44.000          28.0004
 131386424.259 7 102379029.00447  25002003.270    25002002.869    25002013.790
        43.250          33.2504
 113153408.080 8  88008218.626 7  21138012.228    21138012.255    21138028.329
        50.250          46.000
 107246189.212 8  83568460.38046  20408271.637    20408269.313    20408277.854
        51.500          41.7504
 120053004.078 7  93374592.109 7  22434780.969    22434781.707    22434800.063
        44.250          43.250
 12  3 25 10 46 10.0000000  0 21R12G02G05R02G13G29G23G04G31R10G20R18
                                G30R11R19R01G25G07R03G10R17
 124553106.910 8  96874644.967 7  23316603.405    23316602.314    23316624.493
        48.000          42.000
 110983405.372 8  86480576.93346  21119439.734    21119438.574    21119444.414
        49.500          41.5004
 127986172.085 7  99729484.67347  24354957.038    24354957.527    24354965.339
        43.500          31.7504
 102974854.976 8  80091559.094 8  19297446.661    19297446.028    19297462.628
        51.000          48.000
 108652945.846 8  84664632.03447  20675966.902    20675966.692    20675974.451
        52.000          43.0004
 127500672.305 7  99351170.89447  24262566.084    24262566.252    24262575.153
        44.250          33.0004
 112266348.541 8  87480234.22846  21363565.586    21363564.915    21363570.857
        52.500          41.0004
 110100127.022 8  85792288.59047  20951352.632    20951351.967    20951360.637
        50.500          42.2504
 133002505.737 7 103638345.91046  25309542.527    25309541.232    25309550.019
        44.250          32.0004
 119424323.040 7  92885595.631 6  22403703.776    22403703.506    22403724.105
        46.500          36.750
 129590917.646 6 100979934.63742  24660330.951    24660334.144    24660341.801
        39.750          14.5004
 108709268.660 8  84551656.159 8  20364913.271    20364913.337    20364932.548
        50.750          45.750
 127355924.288 7  99238372.86744  24235021.222    24235020.197    24235030.264
        45.750          29.5004
 112349483.882 7  87382971.878 6  21024685.372    21024684.524    21024703.713
        46.250          39.000
 117804862.694 7  91626008.604 7  22022378.190    22022378.073    22022394.717
        47.750          42.000
 117730561.451 7  91568162.296 6  22023924.483    22023924.702    22023943.922
        46.000          38.000
 130741635.660 7 101876563.19846  24879296.829    24879296.260    24879307.421
        44.250          28.2504
 131354497.774 7 102354151.24347  24995927.559    24995927.071    24995938.253
        44.250          33.7504
 113126217.682 8  87987070.545 7  21132932.472    21132932.847    21132949.638
        50.000          46.250
 107240956.971 8  83564383.32846  20407274.650    20407273.807    20407282.240
        50.500          41.5004
 120101669.997 7  93412443.317 7  22443877.083    22443876.121    22443893.965
        44.250          44.000
 12  3 25 10 46 20.0000000  0 21R12G02G05R02G13G29G23G04G31R10G20R18
                                G30R11R19R01G25G07R03G10R17
 124515441.904 8  96845350.002 7  23309553.069    23309552.083    23309574.462
        49.250          42.250
 110976098.810 8  86474883.51046  21118048.922    21118047.924    21118053.887
        49.500          41.2504
 127955255.400 7  99705393.74647  24349074.373    24349073.623    24349082.041
        43.500          31.5004
 102983407.234 8  80098210.846 8  19299049.552    19299048.557    19299064.967
        51.000          47.750
 108649988.984 8  84662327.98547  20675404.887    20675404.009    20675411.662
        52.000          42.7504
 127479684.809 7  99334817.05447  24258572.639    24258572.351    24258580.991
        45.500          33.2504
 112286596.335 8  87496011.72046  21367418.723    21367417.904    21367424.305
        52.500          41.0004
 110122961.099 8  85810081.37547  20955697.719    20955697.180    20955705.514
        51.000          42.2504
 133039831.876 7 103667431.20046  25316643.735    25316643.241    25316655.079
        42.000          32.2504
 119459522.938 7  92912973.313 6  22410307.601    22410307.367    22410327.447
        47.000          37.250
 129634418.744 6 101013831.515 2  24668610.481    24668608.985    24668622.125
        39.250          15.500
 108724638.918 8  84563610.791 7  20367792.151    20367792.697    20367811.742
        50.500          45.500
 127340630.495 7  99226455.64845  24232109.680    24232108.058    24232120.178
        46.250          30.2504
 112344694.994 7  87379247.192 6  21023788.777    21023788.405    21023807.838
        46.250          39.000
 117779122.005 7  91605988.090 7  22017567.339    22017565.918    22017583.066
        47.750          42.500
 117774023.253 7  91601965.890 6  22032054.372    22032054.525    22032073.001
        45.750          37.750
 130772719.679 7 101900784.50846  24885212.565    24885212.850    24885223.864
        45.250          29.5004
 131322570.714 7 102329273.04347  24989852.877    24989851.714    24989862.920
        44.250          34.2504
 113099058.819 8  87965946.989 8  21127859.453    21127859.369    21127876.341
        50.250          46.500
 107235776.090 8  83560346.26146  20406289.433    20406287.901    20406296.253
        51.500          41.2504
 120150361.751 7  93450314.644 7  22452973.635    22452975.706    22452993.913
        44.500          44.250
 12  3 25 10 46 30.0000000  0 21R12G02G05R02G13G29G23G04G31R10G20R18
                                G30R11R19R01G25G07R03G10R17
 124477805.554 8  96816077.335 7  23302506.834    23302506.561    23302528.251
        49.750          43.000
 110968853.114 8  86469237.52246  21116670.188    21116669.121    21116675.360
        49.750          41.2504
 127924353.362 7  99681314.21747  24343193.569    24343192.675    24343201.714
        43.500          31.0004
 102992031.736 8  80104918.789 8  19300664.975    19300664.801    19300681.721
        51.250          47.750
 108647102.286 8  84660078.60847  20674854.729    20674854.777    20674862.601
        51.750          43.0004
 127458743.441 7  99318499.14347  24254587.420    24254586.796    24254595.235
        46.000          33.7504
 112306903.791 8  87511835.70046  21371283.212    21371282.478    21371288.213
        52.250          41.0004
 110145856.561 8  85827921.99247  20960055.026    20960054.004    20960062.401
        51.000          42.0004
 133077189.737 6 103696541.01547  25323751.841    25323752.078    25323765.593
        36.000          30.5004
 119494794.391 7  92940406.668 6  22416923.655    22416924.158    22416944.157
        47.250          36.500
 129677929.943 6 101047736.305 3  24676891.882    24676890.638    24676904.333
        38.750          18.000
 108740102.563 8  84575638.075 7  20370690.715    20370689.483    20370709.015
        50.500          45.750
 127325395.822 7  99214584.48245  24229210.615    24229209.020    24229220.981
        44.250          30.2504
 112340002.144 7  87375597.204 6  21022909.273    21022909.477    21022929.134
        46.750          39.500
 117753446.796 8  91586018.497 7  22012769.416    22012767.029    22012783.110
        48.250          42.500
 117817513.298 7  91635791.448 6  22040191.720    22040190.644    22040210.178
        45.250          38.000
 130803848.799 7 101925040.89246  24891137.300    24891135.346    24891149.340
        45.500          29.5004
 131290653.490 7 102304402.52447  24983779.432    24983777.921    24983788.741
        45.250          34.7504
 113071942.019 8  87944856.157 8  21122794.280    21122793.836    21122810.283
        50.000          46.250
 107230656.737 8  83556357.17446  20405314.604    20405313.575    20405322.027
        50.750          41.2504
 120199089.504 7  93488213.983 7  22462081.273    22462081.573    22462099.812
        45.250          44.250
 12  3 25 10 46 40.0000000  0 21R12G02G05R02G13G29G23G04G31R10G20R18
                                G30R11R19R01G25G07R03G10R17
 124440199.149 8  96786827.951 7  23295466.055    23295466.319    23295488.033
        50.000          43.250
 110961669.563 8  86463639.95146  21115302.736    21115302.116    21115308.228
        49.500          41.7504
 127893467.221 7  99657247.08147  24337315.775    24337315.586    24337323.048
        42.750          29.7504
 103000729.574 8  80111683.774 8  19302295.564    19302294.928    19302311.552
        51.000          47.750
 108644287.025 8  84657884.90347  20674318.826    20674318.967    20674326.716
        52.250          43.0004
 127437849.365 7  99302218.07547  24250610.478    24250611.551    24250620.695
        46.000          34.0004
 112327271.967 8  87527707.00646  21375158.776    21375158.174    21375164.323
        52.250          41.0004
 110168814.588 8  85845811.36646  20964423.404    20964422.405    20964431.312
        50.500          41.7504
 133114580.444 5 103725676.48446  25330865.587    25330867.008    25330879.200
        32.500          25.5004
 119530138.138 8  92967896.231 6  22423553.343    22423554.818    22423574.721
        48.000          36.500
 129721452.420 6 101081649.879 3  24685172.174    24685171.904    24685183.203
        39.000          18.250
 108755660.916 8  84587739.009 7  20373603.712    20373604.539    20373623.384
        50.750          45.750
 127310221.753 7  99202760.52845  24226323.703    24226321.320    24226332.982
        44.000          30.5004
 112335406.540 7  87372022.858 6  21022051.234    21022049.567    21022069.401
        47.250          39.500
 117727838.525 7  91566100.967 7  22007982.735    22007979.524    22007995.731
        47.250          42.500
 117861032.930 7  91669640.023 6  22048333.303    22048331.370    22048349.591
        45.000          37.500
 130835024.276 7 101949333.45046  24897069.060    24897067.864    24897081.069
        44.750          29.2504
 131258747.431 7 102279540.69747  24977706.510    24977706.725    24977718.163
        43.500          35.0004
 113044868.478 8  87923798.968 7  21117736.415    21117736.092    21117752.481
        49.750          46.250
 107225600.180 8  83552416.98846  20404352.902    20404351.427    20404359.870
        51.250          41.5004
 120247854.403 7  93526142.195 7  22471193.602    22471194.286    22471212.414
        45.250          43.750
 12  3 25 10 46 50.0000000  0 20R12G02G05R02G13G29G23G04R10G20R18G30
                                R11R19R01G25G07R03G10R17
 124402620.658 8  96757600.300 7  23288432.154    23288431.602    23288453.583
        49.000          43.250
 110954545.783 8  86458088.95946  21113946.559    21113946.598    21113953.001
        49.000          41.7504
 127862594.844 7  99633190.69547  24331441.665    24331440.292    24331448.018
        43.000          28.7504
 103009498.434 8  80118503.998 8  19303938.382    19303938.133    19303954.882
        51.000          47.750
 108641540.746 8  84655744.94447  20673797.151    20673796.569    20673803.971
        52.750          43.2504
 127417000.538 7  99285972.22747  24246643.930    24246643.450    24246653.943
        46.000          34.5004
 112347698.387 8  87543623.69746  21379046.029    21379045.109    21379051.255
        52.250          41.0004
 110191832.649 8  85863747.51247  20968803.482    20968802.604    20968811.808
        50.500          42.0004
 119565551.893 8  92995440.223 6  22430196.702    22430199.217    22430217.969
        48.750          36.500
 129764983.734 6 101115570.298 3  24693457.784    24693456.348    24693466.784
        39.500          18.250
 108771310.909 8  84599911.227 7  20376536.428    20376536.123    20376554.995
        50.750          45.500
 127295105.953 7  99190981.97945  24223448.223    24223445.947    24223457.199
        46.000          30.5004
 112330905.956 7  87368522.420 6  21021206.820    21021207.156    21021227.161
        47.500          39.750
 117702294.832 7  91546233.673 7  22003205.985    22003204.049    22003220.780
        47.250          42.750
 117904579.392 7  91703509.457 6  22056478.068    22056477.441    22056496.505
        44.250          37.000
 130866243.703 7 101973660.25847  24903008.887    24903008.692    24903022.096
        44.250          28.5004
 131226850.191 7 102254685.75147  24971636.480    24971637.115    24971648.669
        43.000          34.5004
 113017835.829 8  87902773.605 8  21112686.435    21112685.995    21112702.804
        49.500          46.250
 107220603.929 8  83548523.81946  20403401.577    20403400.681    20403408.880
        51.250          41.5004
 120296653.801 7  93564097.255 7  22480313.340    22480312.941    22480331.115
        45.500          43.500
 12  3 25 10 47  0.0000000  0 21R12G02G05R02G13G29G23G04G31R10G20R18
                                G30R11R19R01G25G07R03G10R17
 124365070.486 7  96728394.688 7  23281401.595    23281401.877    23281423.996
        47.750          43.000
 110947482.249 8  86452584.91246  21112602.859    21112601.909    21112608.588
        48.750          41.5004
 127831736.434 7  99609145.16946  24325569.930    24325569.127    24325575.791
        42.250          28.0004
 103018338.636 8  80125379.707 8  19305594.750    19305594.963    19305611.640
        51.000          47.750
 108638863.849 8  84653659.04447  20673287.711    20673287.060    20673294.684
        52.750          43.2504
 127396197.328 7  99269761.92147  24242685.008    24242684.583    24242694.458
        46.250          34.7504
 112368183.388 8  87559586.02446  21382944.042    21382943.529    21382949.159
        52.250          40.7504
 110214911.131 8  85881730.74346  20973194.507    20973194.414    20973203.443
        49.500          41.7504
 133189468.948 5                  25345117.234
        35.000
 119601035.939 8  93023038.937 6  22436853.746    22436855.533    22436875.229
        48.250          36.750
 129808524.206 6 101149497.888 3  24701741.445    24701739.760    24701750.730
        38.500          18.250
 108787053.332 8  84612155.338 7  20379483.166    20379484.950    20379504.653
        50.500          45.500
 127280048.752 7  99179249.10345  24220581.592    24220581.499    24220591.767
        46.250          30.0004
 112326500.620 7  87365096.051 7  21020383.416    21020382.904    21020402.255
        47.500          39.750
 117676816.390 8  91526417.138 7  21998442.832    21998441.393    21998458.394
        48.000          43.000
 117948153.174 7  91737400.168 6  22064628.882    22064629.176    22064647.505
        44.250          37.000
 130897507.216 7 101998021.41147  24908959.056    24908957.710    24908971.471
        44.500          29.2504
 131194962.190 7 102229838.01047  24965568.626    24965568.336    24965580.642
        43.000          34.7504
 112990844.577 8  87881780.432 7  21107642.268    21107643.713    21107659.830
        49.250          45.500
 107215668.572 8  83544678.07746  20402462.453    20402461.545    20402470.008
        51.500          41.5004
 120345487.951 7  93602079.332 7  22489436.744    22489439.157    22489457.807
        44.500          44.000
 12  3 25 10 47 10.0000000  0 21R12G02G05R02G13G29G23G04G31R10G20R18
                                G30R11R19R01G25G07R03G10R17
 124327548.092 8  96699210.685 7  23274377.314    23274377.653    23274398.653
        49.000          42.750
 110940478.318 8  86447127.30746  21111270.378    21111269.196    21111275.492
        49.000          41.7504
 127800891.245 7  99585109.94546  24319698.798    24319698.984    24319704.680
        42.000          27.0004
 103027249.455 8  80132310.340 8  19307265.017    19307264.666    19307280.906
        51.250          47.500
 108636255.676 8  84651626.70747  20672791.308    20672790.772    20672798.392
        52.500          43.5004
 127375439.181 7  99253586.75547  24238735.618    24238734.409    24238743.538
        46.000          34.7504
 112388726.235 8  87575593.43346  21386852.931    21386852.682    21386858.504
        52.250          40.5004
 110238049.219 8  85899760.41946  20977598.122    20977597.268    20977606.480
        49.500          41.7504
 133226950.525 6 103813232.55747  25352250.835    25352249.741    25352260.173
        41.500          33.0004
 119636589.288 8  93050691.534 6  22443526.929    22443525.783    22443545.291
        49.500          37.250
 129852073.059 6 101183432.016 2  24710029.451    24710026.039    24710040.351
        39.250          17.750
 108802887.730 8  84624470.970 7  20382451.382    20382451.256    20382470.706
        50.750          45.250
 127265049.666 7  99167561.54644  24217727.520    24217726.765    24217737.299
        44.750          29.7504
 112322189.934 8  87361743.310 6  21019577.197    21019576.606    21019596.488
        48.250          39.500
 117651402.344 7  91506650.691 7  21993690.801    21993689.994    21993707.835
        47.750          43.000
 117991753.354 7  91771311.385 6  22072787.320    22072785.839    22072804.241
        44.250          37.250
 130928813.933 7 102022416.14947  24914916.823    24914916.050    24914928.923
        44.500          29.0004
 131163082.929 7 102204997.07447  24959502.068    24959502.230    24959513.892
        43.500          34.7504
 112963894.104 8  87860818.955 7  21102608.495    21102608.972    21102625.047
        49.750          44.750
 107210793.327 8  83540879.18746  20401534.694    20401534.032    20401542.288
        51.000          41.5004
 120394356.026 7  93640087.770 7  22498570.416    22498571.447    22498589.761
        44.750          44.000
 12  3 25 10 47 20.0000000  0 21R12G02G05R02G13G29G23G04G31R10G20R18
                                G30R11R19R01G25G07R03G10R17
 124290052.717 8  96670047.680 6  23267358.168    23267358.396    23267380.092
        50.000          42.250
 110933533.128 8  86441715.46746  21109948.443    21109947.843    21109954.172
        49.250          41.7504
 127770058.511 6  99561084.41646  24313830.756    24313832.429    24313839.336
        41.250          26.5004
 103036229.947 8  80139295.166 8  19308948.489    19308947.557    19308964.213
        51.250          47.500
 108633715.339 8  84649647.22347  20672307.773    20672307.380    20672314.917
        52.500          43.7504
 127354725.157 7  99237445.97447  24234793.658    24234793.203    24234801.699
        46.250          34.5004
 112409325.826 8  87591645.05346  21390773.623    21390772.777    21390778.455
        52.000          40.7504
 110261246.005 8  85917835.83146  20982012.185    20982011.415    20982020.732
        50.000          41.7504
 133264460.870 6 103842461.34447  25359388.986    25359387.589    25359398.046
        41.750          36.0004
 119672210.797 8  93078397.145 6  22450205.711    22450208.235    22450226.912
        49.750          37.500
 129895629.258 6 101217371.862 2  24718317.804    24718313.430    24718326.974
        39.500          16.500
 108818812.297 8  84636856.745 7  20385433.420    20385434.802    20385453.833
        50.750          45.500
 127250107.817 7  99155918.55444  24214883.695    24214883.029    24214894.134
        42.750          29.5004
 112317973.056 8  87358463.503 6  21018788.586    21018787.951    21018805.279
        48.500          39.750
 117626052.152 7  91486933.897 7  21988952.350    21988951.508    21988968.410
        47.500          43.250
 118035378.951 7  91805242.383 6  22080947.809    22080946.502    22080964.936
        44.500          37.250
 130960162.991 7 102046843.94347  24920883.547    24920882.267    24920892.883
        44.750          30.2504
 131131211.511 7 102180162.24547  24953437.773    24953437.465    24953448.848
        43.000          34.5004
 112936983.546 8  87839888.522 7  21097582.439    21097581.488    21097597.641
        49.750          44.250
 107205977.269 8  83537126.40446  20400618.960    20400617.446    20400625.700
        51.500          41.5004
 120443256.858 7  93678121.698 7  22507709.751    22507709.811    22507729.030
        44.500          44.000
 12  3 25 10 47 30.0000000  0 21R12G02G05R02G13G29G23G04G31R10G20R18
                                G30R11R19R01G25G07R03G10R17
 124252586.013 8  96640906.959 6  23260344.152    23260345.042    23260365.527
        51.500          41.500
 110926648.171 8  86436350.55646  21108638.119    21108637.675    21108643.887
        49.750          41.7504
 127739239.891 6  99537069.90946  24307967.748    24307965.683    24307977.165
        41.000          25.7504
 103045281.480 8  80146335.242 8  19310643.932    19310644.001    19310660.412
        51.250          47.750
 108631244.377 8  84647721.79247  20671837.561    20671837.024    20671844.879
        51.750          43.5004
 127334057.076 7  99221341.04747  24230860.211    24230860.187    24230868.419
        46.500          34.7504
 112429983.611 8  87607742.02346  21394704.309    21394703.749    21394709.571
        52.250          40.5004
 110284502.920 8  85935958.08446  20986438.360    20986437.527    20986446.311
        49.750          41.7504
 133302001.250 6 103871713.51847  25366528.277    25366530.046    25366540.694
        39.500          37.0004
 119707901.822 8  93106156.777 6  22456905.476    22456903.305    22456922.738
        49.500          37.500
 129939194.304 6 101251318.621 2  24726608.786    24726608.885    24726618.136
        39.000          14.000
 108834829.104 8  84649314.245 7  20388435.206    20388434.987    20388454.576
        50.000          45.500
 127235224.787 7  99144321.40844  24212051.969    24212050.332    24212062.672
        43.000          29.5004
 112313851.619 8  87355257.944 6  21018017.154    21018016.783    21018035.262
        48.250          39.750
 117600767.191 7  91467267.815 7  21984225.402    21984224.788    21984241.621
        47.250          43.250
 118079031.340 7  91839194.206 6  22089111.247    22089113.256    22089133.069
        44.250          37.500
 130991555.615 7 102071305.68947  24926855.896    24926855.362    24926866.676
        46.000          30.7504
 131099349.540 7 102155334.78247  24947374.222    24947373.761    24947384.895
        43.500          34.7504
 112910114.403 8  87818990.292 7  21092562.171    21092562.297    21092578.573
        50.250          44.250
 107201221.945 8  83533420.95246  20399713.635    20399712.676    20399720.851
        51.000          41.5004
 120492191.798 7  93716182.151 7  22516854.785    22516854.479    22516872.299
        44.000          42.000
 12  3 25 10 47 40.0000000  0 21R12G02G05R02G13G29G23G04G31R10G20R18
                                G30R11R19R01G25G07R03G10R17
 124215147.425 8  96611788.087 6  23253336.632    23253336.350    23253356.790
        52.000          41.000
 110919822.863 8  86431032.12746  21107339.757    21107338.734    21107345.156
        50.000          41.5004
 127708434.884 6  99513066.03746  24302103.655    24302104.932    24302111.851
        41.250          26.2504
 103054403.586 8  80153430.212 8  19312353.865    19312353.310    19312370.164
        51.250          48.000
 108628842.197 8  84645849.97247  20671380.416    20671379.844    20671387.812
        52.000          43.5004
 127313434.136 7  99205271.27347  24226935.744    24226935.870    24226944.067
        46.750          34.5004
 112450699.006 8  87623883.87546  21398646.176    21398645.732    21398651.647
        52.250          40.5004
 110307819.229 8  85954126.62847  20990874.548    20990874.464    20990883.437
        50.000          42.0004
 133339571.095 6 103900988.71846  25373678.789    25373679.259    25373688.895
        40.000          36.2504
 119743661.842 8  93133970.098 6  22463614.040    22463612.265    22463631.098
        50.000          37.750
 129982767.543 6 101285271.830 2  24734899.402    24734901.138    24734909.847
        39.500          14.000
 108850937.257 8  84661842.801 8  20391452.659    20391452.518    20391472.008
        50.250          45.750
 127220400.054 7  99132769.70045  24209230.607    24209230.601    24209242.488
        42.750          30.0004
 112309824.775 7  87352125.972 6  21017263.668    21017262.727    21017281.491
        47.000          39.250
 117575547.240 8  91447652.310 7  21979510.072    21979510.279    21979526.605
        48.250          43.250
 118122709.879 7  91873166.370 6  22097286.453    22097284.945    22097302.138
        43.750          37.750
 131022991.255 7 102095800.96747  24932839.999    24932837.826    24932849.697
        46.000          30.7504
 131067496.546 7 102130514.31847  24941312.527    24941312.736    24941323.913
        43.000          35.2504
 112883286.323 8  87798123.997 7  21087550.127    21087551.254    21087566.510
        50.500          44.250
 107196526.889 8  83529762.44946  20398820.646    20398818.908    20398827.712
        51.500          41.7504
 120541160.193 7  93754268.672 7  22526003.009    22526004.400    22526023.526
        43.750          41.250
 12  3 25 10 47 50.0000000  0 21R12G02G05R02G13G29G23G04G31R10G20R18
                                G30R11R19R01G25G07R03G10R17
 124177741.582 8  96582694.683 6  23246334.464    23246333.954    23246354.415
        51.750          41.000
 110913061.558 8  86425763.59546  21106052.796    21106052.253    21106058.735
        50.000          41.5004
 127677647.699 6  99489076.02046  24296246.343    24296245.773    24296253.891
        40.500          25.7504
 103063600.455 8  80160583.327 8  19314076.907    19314076.838    19314093.881
        51.000          47.750
 108626513.030 8  84644035.03147  20670936.843    20670936.957    20670944.401
        52.000          43.5004
 127292860.732 7  99189240.07247  24223021.366    24223020.920    24223029.227
        47.000          34.2504
 112471476.180 8  87640073.88246  21402600.453    21402599.275    21402605.148
        52.500          40.7504
 110331199.170 8  85972344.75746  20995323.951    20995323.750    20995332.363
        50.750          41.7504
 133377174.738 7 103930290.32746  25380835.476    25380835.392    25380845.294
        42.750          37.7504
 119779494.706 8  93161840.049 6  22470335.336    22470334.232    22470354.567
        49.750          38.750
 130026353.116 6 101319234.642 2  24743192.591    24743193.437    24743205.629
        39.000          14.000
 108867140.930 8  84674445.658 7  20394487.596    20394488.178    20394507.322
        50.500          45.250
 127205637.923 7  99121266.80544  24206421.825    24206419.627    24206432.839
        42.750          29.2504
 112305897.041 7  87349071.057 6  21016529.051    21016528.316    21016545.803
        46.500          39.000
 117550396.667 7  91428090.778 7  21974806.484    21974808.424    21974825.662
        47.500          43.500
 118166418.656 7  91907162.053 6  22105461.341    22105461.874    22105480.314
        44.000          37.500
 131054473.887 7 102120332.81447  24938828.914    24938828.620    24938840.006
        46.000          30.5004
 131035656.783 7 102105704.18847  24935253.559    24935252.981    24935264.735
        42.750          34.7504
 112856503.622 8  87777293.003 7  21082548.135    21082547.763    21082564.066
        50.750          44.500
 107191896.137 8  83526154.08046  20397938.705    20397937.629    20397945.972
        50.500          41.5004
 120590166.136 7  93792384.374 7  22535164.879    22535162.699    22535181.209
        42.500          40.000
 12  3 25 10 48  0.0000000  0 21R12G02G05R02G13G29G23G04G31R10G20R18
                                G30R11R19R01G25G07R03G10R17
 124140362.842 8  96553622.369 6  23239337.320    23239336.480    23239356.839
        51.250          41.000
 110906358.636 8  86420540.53546  21104777.146    21104776.930    21104782.920
        50.000          41.5004
 127646872.866 6  99465095.67847  24290389.142    24290388.749    24290396.283
        41.500          27.5004
 103072866.284 8  80167790.077 8  19315812.504    19315813.314    19315829.955
        51.250          48.000
 108624251.294 8  84642272.63847  20670506.977    20670506.488    20670513.896
        51.750          43.5004
 127272331.491 7  99173243.32047  24219114.870    24219113.353    24219122.436
        47.000          33.7504
 112492309.467 8  87656307.61246  21406564.639    21406563.874    21406569.750
        52.750          40.5004
 110354636.903 8  85990607.92347  20999784.434    20999784.155    20999792.489
        50.750          42.0004
 133414806.207 7 103959613.51046  25387997.026    25387996.646    25388006.584
        45.000          38.0004
 119815394.829 8  93189762.344 6  22477069.699    22477069.169    22477088.979
        49.500          39.250
 130069945.470 6 101353202.711 2  24751490.154    24751489.563    24751500.425
        38.250          16.750
 108883434.846 8  84687118.703 7  20397540.179    20397540.437    20397559.569
        50.750          45.250
 127190932.909 7  99109808.36144  24203622.675    24203622.099    24203634.163
        43.500          29.5004
 112302062.740 7  87346088.839 6  21015810.766    21015810.289    21015828.436
        46.250          39.000
 117525309.890 7  91408578.865 7  21970118.827    21970118.387    21970135.463
        47.250          42.750
 118210152.135 7  91941176.956 6  22113643.636    22113642.986    22113661.342
        44.250          37.250
 131085997.980 7 102144896.98547  24944827.359    24944825.920    24944839.045
        45.250          29.0004
 131003824.870 6 102080900.14647  24929196.256    24929196.088    24929206.874
        41.250          34.7504
 112829760.523 8  87756492.811 7  21077551.847    21077552.222    21077568.177
        51.500          44.250
 107187324.246 8  83522591.55046  20397069.406    20397067.865    20397076.373
        51.500          41.5004
 120639203.719 7  93830524.700 6  22544327.745    22544326.854    22544344.164
        43.250          39.750
 12  3 25 10 48 10.0000000  0 21R12G02G05R02G13G29G23G04G31R10G20R18
                                G30R11R19R01G25G07R03G10R17
 124103009.735 8  96524569.995 7  23232343.971    23232343.731    23232365.349
        49.500          41.250
 110899712.607 8  86415361.81046  21103512.720    21103511.965    21103518.173
        49.250          41.5004
 127616108.713 7  99441123.61847  24284536.554    24284535.229    24284544.133
        42.750          29.0004
 103082199.593 8  80175049.311 8  19317562.726    19317562.279    19317578.759
        51.250          47.750
 108622055.383 8  84640561.54747  20670089.306    20670088.652    20670096.147
        51.750          43.5004
 127251844.838 7  99157279.72447  24215215.244    24215215.151    24215224.289
        46.750          34.0004
 112513197.227 8  87672583.78646  21410539.587    21410538.843    21410544.824
        52.500          40.5004
 110378131.000 8  86008915.00847  21004255.685    21004254.795    21004263.159
        50.500          42.5004
 133452463.893 7 103988957.21746  25395162.891    25395162.897    25395173.959
        45.250          34.5004
 119851360.260 8  93217735.428 6  22483814.484    22483816.037    22483836.192
        49.750          38.750
 130113542.843 6 101387174.668 3  24759784.047    24759784.194    24759797.739
        37.000          18.500
 108899816.700 8  84699860.132 7  20400610.051    20400609.316    20400628.164
        50.000          45.250
 127176283.607 7  99098393.34644  24200834.779    24200833.550    24200846.734
        42.500          29.7504
 112298320.632 7  87343178.334 6  21015111.410    21015110.082    21015126.807
        45.500          38.750
 117500285.455 7  91389115.420 7  21965445.423    21965440.434    21965457.040
        46.500          42.750
 118253908.479 7  91975209.649 6  22121826.357    22121828.561    22121847.043
        44.500          37.500
 131117561.831 7 102169492.19146  24950835.425    24950832.655    24950844.946
        44.750          28.0004
 130971999.273 7 102056101.04447  24923141.443    24923140.028    24923151.153
        42.750          35.0004
 112803055.571 8  87735722.292 7  21072562.722    21072563.331    21072579.421
        51.000          44.500
 107182809.631 8  83519073.66646  20396209.949    20396208.594    20396217.126
        51.000          41.7504
 120688271.342 7  93868688.394 7  22553500.135    22553496.837    22553513.556
        43.750          40.750
 12  3 25 10 48 20.0000000  0 21R12G02G05R02G13G29G23G04G31R10G20R18
                                G30R11R19R01G25G07R03G10R17
 124065688.370 8  96495542.337 7  23225356.825    23225356.618    23225376.740
        48.250          41.250
 110893129.447 8  86410232.07946  21102260.058    21102259.012    21102265.521
        48.500          41.2504
 127585361.270 7  99417164.58647  24278683.547    24278684.674    24278693.269
        42.500          30.2504
 103091606.311 8  80182365.652 8  19319325.967    19319325.337    19319341.895
        51.250          47.750
 108619931.276 8  84638906.39747  20669685.090    20669684.166    20669691.919
        52.000          43.5004
 127231406.711 7  99141353.95147  24211326.912    24211326.420    24211334.713
        47.500          34.7504
 112534145.309 8  87688906.96546  21414525.433    21414524.863    21414531.096
        52.500          40.7504
 110401687.255 8  86027270.52747  21008738.359    21008737.424    21008745.860
        51.000          42.5004
 133490153.605 7 104018325.89446  25402334.160    25402333.947    25402344.827
        44.250          34.7504
 119887396.922 8  93245763.903 6  22490575.739    22490576.462    22490596.563
        48.750          38.750
 130157151.064 6 101421155.020 3  24768085.147    24768081.604    24768095.670
        37.750          19.750
 108916292.857 8  84712674.922 7  20403694.726    20403695.769    20403715.229
        50.250          45.250
 127161695.926 7  99087026.33745  24198060.209    24198058.359    24198070.057
        43.750          30.0004
 112294676.377 7  87340343.928 6  21014427.503    21014427.461    21014447.043
        45.750          38.500
 117475329.378 7  91369705.148 7  21960776.566    21960775.082    21960792.476
        47.500          42.750
 118297693.529 7  92009264.659 6  22130021.370    22130019.116    22130037.772
        44.500          37.500
 131149171.187 7 102194122.90946  24956850.083    24956849.565    24956860.498
        44.500          27.7504
 130940185.941 7 102031311.48947  24917086.967    24917086.385    24917097.061
        43.250          35.0004
 112776394.926 8  87714986.235 7  21067582.939    21067582.834    21067599.047
        50.750          45.000
 107178358.173 8  83515604.98946  20395363.245    20395361.788    20395370.098
        51.000          41.7504
 120737374.741 7  93906879.909 7  22562672.204    22562673.436    22562690.159
        44.250          42.000
 12  3 25 10 48 30.0000000  0 21R12G02G05R02G13G29G23G04G31R10G20R18
                                G30R11R19R01G25G07R03G10R17
 124028394.637 7  96466536.179 7  23218374.758    23218375.267    23218396.604
        47.750          41.000
 110886604.852 8  86405147.97746  21101018.297    21101017.218    21101023.975
        48.750          41.0004
 127554626.195 7  99393215.20247  24272837.333    24272836.905    24272845.590
        43.000          31.7504
 103101081.972 8  80189735.612 8  19321100.412    19321101.122    19321117.841
        51.000          48.000
 108617874.517 8  84637303.72847  20669293.147    20669292.601    20669300.612
        52.250          43.7504
 127211012.798 7  99125462.62247  24207446.905    24207444.717    24207454.118
        47.250          34.2504
 112555149.299 8  87705273.70246  21418522.077    21418521.603    21418528.091
        52.250          40.5004
 110425301.128 8  86045670.93347  21013232.041    21013231.214    21013239.365
        51.250          42.7504
 133527870.654 7 104047715.82546  25409511.986    25409512.304    25409520.788
        43.250          31.2504
 119923500.314 8  93273844.289 6  22497348.771    22497348.546    22497369.780
        48.500          39.000
 130200765.609 6 101455140.317 3  24776382.066    24776381.988    24776395.655
        37.250          21.500
 108932858.823 8  84725559.568 8  20406798.774    20406799.014    20406818.459
        50.250          45.500
 127147165.528 7  99075703.96445  24195294.227    24195292.447    24195305.218
        44.750          30.5004
 112291125.603 7  87337582.224 6  21013761.864    21013762.866    21013782.121
        46.000          38.250
 117450437.467 7  91350344.778 7  21956114.364    21956121.580    21956138.986
        46.750          43.000
 118341502.705 7  92043338.426 6  22138214.359    22138214.824    22138232.326
        45.000          37.250
 131180821.603 7 102218785.59046  24962872.605    24962871.541    24962883.604
        45.000          29.0004
 130908380.654 7 102006528.19547  24911034.622    24911034.526    24911044.491
        44.000          35.5004
 112749774.129 8  87694281.177 7  21062609.292    21062610.050    21062625.706
        50.500          45.250
 107173965.522 8  83512182.14446  20394526.980    20394525.898    20394534.448
        51.250          41.7504
 120786509.176 7  93945095.538 7  22571854.235    22571855.072    22571872.775
        44.250          42.000
 12  3 25 10 48 40.0000000  0 21R12G02G05R02G13G29G23G04G31R10G20R18
                                G30R11R19R01G25G07R03G10R17
 123991129.485 8  96437552.238 7  23211399.687    23211398.770    23211421.662
        48.500          40.750
 110880139.733 8  86400110.22746  21099787.841    21099786.959    21099793.567
        48.250          41.0004
 127523904.486 7  99369276.21047  24266990.640    24266990.679    24266998.228
        42.750          31.7504
 103110627.419 8  80197159.840 8  19322887.417    19322889.843    19322906.643
        51.000          48.000
 108615886.021 8  84635754.25247  20668915.316    20668914.728    20668921.878
        52.000          43.7504
 127190664.212 7  99109606.59947  24203572.708    24203573.524    24203580.803
        47.000          34.5004
 112576209.966 8  87721684.60946  21422529.588    21422529.567    21422535.503
        52.250          40.5004
 110448973.578 8  86064116.99247  21017736.339    21017736.051    21017744.047
        51.500          42.7504
 133565616.132 7 104077127.96346  25416694.036    25416693.691    25416703.311
        43.000          30.0004
 119959671.164 7  93301977.082 6  22504134.690    22504134.642    22504155.807
        47.000          39.000
 130244387.489 6 101489131.310 3  24784684.017    24784684.809    24784695.430
        37.500          21.500
 108949515.172 8  84738514.501 7  20409918.609    20409919.758    20409938.537
        49.750          45.500
 127132693.432 7  99064427.01945  24192540.897    24192539.404    24192551.549
        45.250          31.0004
 112287669.430 7  87334894.116 6  21013116.096    21013115.617    21013134.366
        46.500          38.250
 117425610.758 7  91331035.111 7  21951484.028    21951480.655    21951497.183
        46.500          42.500
 118385336.962 7  92077431.718 6  22146415.928    22146415.443    22146433.955
        45.250          36.500
 131212513.752 7 102243480.78446  24968903.005    24968903.005    24968913.873
        45.000          29.0004
 130876584.438 7 101981751.99347  24904982.822    24904983.014    24904993.456
        44.750          35.5004
 112723194.162 8  87673607.872 7  21057645.499    21057644.702    21057661.191
        49.750          45.500
 107169632.748 8  83508805.95046  20393702.811    20393701.498    20393709.779
        51.500          41.5004
 120835675.607 7  93983336.054 7  22581043.117    22581042.628    22581060.058
        44.500          42.000
 12  3 25 10 48 50.0000000  0 21R12G02G05R02G13G29G23G04G31R10G20R18
                                G30R11R19R01G25G07R03G10R17
 123953893.573 8  96408591.018 6  23204429.842    23204429.003    23204449.560
        48.750          40.000
 110873734.590 8  86395119.20746  21098569.340    21098568.240    21098574.686
        48.500          41.0004
 127493196.652 7  99345348.02747  24261146.879    24261147.133    24261154.874
        42.500          30.7504
 103120243.046 8  80204638.656 8  19324692.696    19324691.679    19324708.192
        51.500          48.000
 108613966.263 8  84634258.34147  20668549.848    20668549.281    20668556.605
        52.000          43.5004
 127170361.366 7  99093786.21747  24199709.460    24199709.379    24199717.827
        46.250          33.5004
 112597327.663 8  87738139.95246  21426548.645    21426547.982    21426554.170
        52.500          40.7504
 110472705.013 8  86082609.01247  21022252.299    21022252.146    21022259.826
        51.750          42.7504
 133603390.069 7 104106562.18145  25423882.672    25423882.196    25423891.333
        43.250          27.5004
 119995909.517 7  93330162.380 6  22510931.944    22510932.532    22510953.376
        47.750          38.500
 130288016.982 6 101523128.24943  24792989.162    24792985.411    24792997.121
        38.000          22.0004
 108966262.725 8  84751540.373 7  20413057.691    20413056.855    20413076.176
        50.250          45.250
 127118280.183 7  99053195.94345  24189797.889    24189796.570    24189808.466
        42.250          30.2504
 112284308.241 7  87332279.869 6  21012486.137    21012487.012    21012506.037
        47.750          38.250
 117400849.811 7  91311776.614 7  21946852.990    21946851.755    21946868.843
        47.500          43.000
 118429196.582 7  92111544.742 6  22154619.338    22154619.941    22154637.557
        45.000          36.250
 131244248.032 7 102268208.83446  24974941.083    24974942.441    24974953.917
        45.000          29.2504
 130844797.677 7 101956983.15047  24898934.308    24898934.659    24898945.320
        44.500          35.5004
 112696655.652 8  87652966.813 7  21052687.286    21052687.103    21052703.403
        49.750          45.750
 107165360.158 8  83505476.66346  20392889.648    20392888.356    20392896.576
        51.500          41.7504
 120884874.207 7  94021601.626 7  22590239.269    22590236.541    22590254.720
        44.250          42.500
 12  3 25 10 49  0.0000000  0 21R12G02G05R02G13G29G23G04G31R10G20R18
                                G30R11R19R01G25G07R03G10R17
 123916693.880 8  96379657.964 6  23197464.327    23197465.199    23197485.786
        48.500          39.250
 110867396.281 8  86390180.27146  21097362.760    21097362.244    21097368.534
        49.250          41.2504
 127462509.456 6  99321435.94947  24255306.568    24255306.418    24255314.932
        40.750          30.0004
 103129935.790 8  80212177.451 8  19326511.453    19326508.218    19326524.365
        51.250          48.000
 108612122.182 8  84632821.38447  20668198.401    20668198.482    20668205.989
        51.750          43.2504
 127150111.147 7  99078006.86347  24195856.350    24195856.653    24195864.529
        47.250          34.0004
 112618509.217 8  87754645.05846  21430579.541    21430578.545    21430585.009
        52.500          40.7504
 110496501.910 8  86101152.04647  21026780.457    21026780.190    21026788.173
        52.000          42.7504
 133641199.490 6 104136024.09546  25431076.534    25431075.614    25431086.658
        38.250          25.2504
 120032222.358 7  93358405.641 6  22517744.179    22517743.759    22517766.139
        45.000          38.250
 130331660.849 6 101557136.40243  24801292.130    24801292.885    24801301.019
        38.000          22.7504
 108983107.880 8  84764642.164 7  20416213.004    20416212.305    20416231.471
        50.000          45.000
 127103932.622 7  99042016.00744  24187067.709    24187067.263    24187077.048
        42.500          29.7504
 112281049.028 7  87329744.923 6  21011877.780    21011877.618    21011896.757
        47.750          38.250
 117376161.694 7  91292574.754 7  21942239.100    21942236.896    21942254.141
        46.500          42.750
 118473088.332 7  92145682.755 6  22162830.654    22162830.468    22162848.704
        44.750          35.750
 131276031.093 7 102292974.86147  24980990.520    24980989.591    24981002.176
        46.000          29.2504
 130813027.366 7 101932227.12047  24892889.530    24892888.304    24892899.378
        45.000          35.5004
 112670165.476 8  87632363.361 7  21047738.420    21047738.453    21047755.310
        50.000          46.000
 107161154.656 8  83502199.64346  20392089.202    20392087.799    20392096.373
        51.500          41.7504
 120934111.770 7  94059897.492 7  22599439.971    22599437.294    22599456.058
        44.500          42.750
 12  3 25 10 49 10.0000000  0 21R12G02G05R02G13G29G23G04G31R10G20R18
                                G30R11R19R01G25G07R03G10R17
 123879523.466 7  96350747.664 6  23190507.136    23190506.716    23190527.177
        47.500          39.250
 110861117.719 8  86385287.88346  21096168.252    21096167.634    21096173.795
        48.750          41.0004
 127431835.902 6  99297534.51147  24249470.688    24249470.157    24249476.810
        40.500          28.7504
 103139698.412 8  80219770.598 8  19328338.960    19328337.647    19328354.202
        51.500          47.750
 108610346.653 8  84631437.85947  20667860.733    20667860.592    20667867.727
        51.500          43.2504
 127129906.554 7  99062263.04047  24192011.191    24192010.948    24192019.840
        47.500          34.7504
 112639747.373 8  87771194.26546  21434620.860    21434620.638    21434626.250
        52.500          41.0004
 110520357.379 8  86119740.71847  21031320.889    21031319.468    21031327.562
        51.500          42.5004
 133679036.771 6 104165507.67546  25438275.720    25438275.420    25438286.570
        39.250          24.5004
 120068602.398 7  93386701.178 6  22524569.866    22524569.731    22524591.397
        46.500          38.250
 130375311.940 6 101591150.16943  24809598.129    24809598.425    24809607.788
        37.000          22.5004
 109000043.824 8  84777814.564 7  20419385.258    20419385.321    20419404.364
        49.750          45.000
 127089643.717 7  99030881.84244  24184348.889    24184346.379    24184357.948
        43.750          29.2504
 112277884.682 8  87327283.755 6  21011286.799    21011285.588    21011304.598
        48.000          38.250
 117351539.516 7  91273424.198 7  21937635.574    21937633.742    21937650.294
        47.000          43.000
 118517005.103 7  92179840.229 6  22171044.682    22171045.950    22171064.178
        45.500          36.000
 131307855.701 7 102317773.25547  24987046.277    24987044.298    24987057.831
        45.500          29.2504
 130781266.522 7 101907478.47047  24886844.356    24886844.542    24886855.011
        45.250          35.0004
 112643716.508 8  87611791.957 7  21042796.437    21042796.833    21042813.861
        49.250          46.000
 107157009.185 8  83498969.40246  20391300.427    20391299.087    20391307.593
        51.500          41.7504
 120983381.061 7  94098218.009 7  22608650.468    22608645.222    22608663.629
        43.750          43.250
 12  3 25 10 49 20.0000000  0 21R12G02G05R02G13G29G23G04G31R10G20R18
                                G30R11R19R01G25G07R03G10R17
 123842382.277 7  96321860.100 6  23183553.660    23183553.759    23183573.371
        44.250          39.250
 110854899.015 8  86380442.13646  21094984.914    21094984.056    21094990.226
        48.500          40.2504
 127401176.015 6  99273643.72747  24243635.401    24243634.583    24243642.791
        40.250          28.2504
 103149530.962 8  80227418.137 8  19330181.952    19330180.307    19330197.110
        51.250          47.750
 108608639.565 8  84630107.66247  20667536.016    20667535.125    20667542.875
        51.250          43.2504
 127109747.658 7  99046554.82447  24188175.149    24188175.200    24188184.056
        47.500          35.0004
 112661042.103 8  87787787.55946  21438673.280    21438672.522    21438678.623
        52.500          41.0004
 110544271.311 8  86138374.94547  21035870.155    21035870.212    21035878.519
        51.500          42.2504
 133716902.475 6 104195013.48046  25445485.123    25445482.530    25445494.780
        40.500          24.2504
 120105049.282 7  93415048.713 6  22531406.402    22531407.019    22531428.257
        46.750          37.500
 130418970.053 5 101625169.37143  24817904.478    24817904.913    24817916.893
        35.250          22.5004
 109017069.927 8  84791057.076 7  20422574.711    20422574.954    20422594.125
        50.000          45.250
 127075413.597 7  99019793.44044  24181640.615    24181639.203    24181651.902
        43.500          29.5004
 112274814.949 7  87324896.193 6  21010712.091    21010711.521    21010728.780
        47.750          38.000
 117326983.204 8  91254324.871 7  21933044.831    21933043.380    21933059.992
        48.250          43.000
 118560946.718 7  92214017.015 6  22179265.168    22179266.715    22179283.959
        45.500          36.000
 131339721.876 7 102342604.04347  24993110.329    24993107.157    24993120.288
        44.500          27.5004
 130749515.199 7 101882737.25147  24880803.733    24880801.922    24880813.263
        44.750          34.7504
 112617308.842 8  87591252.662 8  21037863.109    21037863.853    21037880.905
        49.500          46.500
 107152923.662 8  83495785.88747  20390523.129    20390521.582    20390530.078
        52.000          42.2504
 121032681.710 7  94136562.914 7  22617860.326    22617857.679    22617877.129
        43.500          44.250
 12  3 25 10 49 30.0000000  0 21R12G02G05R02G13G29G23G04G31R10G20R18
                                G30R11R19R01G25G07R03G10R17
 123805267.962 6  96292993.475 6  23176604.258    23176604.252    23176625.888
        40.500          39.750
 110848737.445 8  86375640.92146  21093812.225    21093811.733    21093817.657
        49.250          40.7504
 127370527.179 6  99249761.53847  24237802.792    24237802.717    24237810.728
        40.250          27.7504
 103159430.527 8  80235117.797 8  19332035.956    19332035.656    19332052.097
        51.250          48.000
 108606998.335 8  84628828.78047  20667223.902    20667223.098    20667230.536
        51.250          43.0004
 127089631.907 8  99030880.24147  24184347.354    24184346.487    24184356.060
        48.000          35.5004
 112682390.683 8  87804422.81446  21442735.399    21442735.333    21442741.530
        52.500          40.7504
 110568240.932 8  86157052.57047  21040431.641    21040431.279    21040439.712
        51.500          42.2504
 133754793.229 6 104224538.86346  25452693.870    25452692.077    25452703.841
        37.500          27.5004
 120141560.489 7  93443446.285 6  22538255.338    22538256.774    22538277.936
        46.750          36.750
 130462632.532 6 101659192.08043  24826214.944    24826211.284    24826225.269
        37.500          21.0004
 109034183.634 8  84804367.753 7  20425781.306    20425780.922    20425800.088
        50.250          45.000
 127061239.734 6  99008748.85644  24178943.442    24178941.799    24178953.302
        41.250          28.2504
 112271837.531 7  87322580.432 6  21010153.209    21010154.522    21010172.656
        47.250          38.500
 117302490.124 7  91235274.669 7  21928466.928    21928464.581    21928481.024
        47.500          42.250
 118604910.240 7  92248210.843 6  22187491.150    22187489.917    22187508.268
        45.250          36.250
 131371626.739 7 102367465.00246  24999181.564    24999179.576    24999193.193
        43.500          26.7504
 130717770.902 7 101858001.49347  24874761.986    24874761.578    24874772.385
        45.000          34.7504
 112590939.788 8  87570743.426 8  21032936.977    21032937.450    21032954.808
        48.500          46.750
 107148895.418 8  83492646.99547  20389755.864    20389755.132    20389763.697
        51.250          42.2504
 121082010.942 6  94174930.029 7  22627076.333    22627076.276    22627095.088
        41.500          43.500
 12  3 25 10 49 40.0000000  0 21R12G02G05R02G13G29G23G04G31R10G20R18
                                G30R11R19R01G25G07R03G10R17
 123768181.209 6  96264148.334 6  23169663.277    23169661.247    23169682.955
        38.250          40.500
 110842633.855 8  86370884.88446  21092650.118    21092650.424    21092656.297
        49.250          41.2504
 127339890.167 6  99225888.56247  24231972.656    24231972.995    24231981.890
        40.000          28.7504
 103169397.836 8  80242870.141 8  19333903.801    19333903.192    19333920.529
        51.000          48.000
 108605423.610 8  84627601.71847  20666923.941    20666923.471    20666931.199
        51.250          43.0004
 127069560.048 7  99015239.88447  24180528.382    24180527.575    24180536.761
        47.750          35.0004
 112703793.678 8  87821100.47046  21446808.502    21446807.807    21446814.192
        52.750          41.0004
 110592266.852 8  86175774.06247  21045003.899    21045003.230    21045011.598
        50.750          42.0004
 133792709.840 6 104254084.39246  25459908.693    25459910.054    25459917.954
        40.250          28.2504
 120178136.250 7  93471894.096 6  22545119.598    22545118.396    22545140.290
        47.250          37.000
 130506300.066 6 101693218.64343  24834525.701    24834524.639    24834534.287
        37.750          20.2504
 109051385.908 8  84817747.308 7  20429003.136    20429003.436    20429022.317
        50.000          44.750
 127047122.822 6  98997748.69644  24176257.079    24176254.097    24176265.441
        40.250          27.5004
 112268953.079 7  87320336.976 6  21009614.787    21009614.548    21009632.703
        47.000          38.500
 117278061.092 7  91216274.323 7  21923897.573    21923898.151    21923914.499
        47.500          42.500
 118648896.485 7  92282422.358 6  22195720.839    22195719.184    22195737.703
        45.250          36.000
 131403570.831 7 102392356.49746  25005261.034    25005258.060    25005270.942
        43.000          24.7504
 130686034.307 7 101833271.74647  24868722.646    24868722.451    24868733.348
        44.750          35.0004
 112564610.158 8  87550264.831 8  21028020.165    21028018.947    21028036.305
        49.750          46.750
 107144925.184 8  83489553.30747  20389001.799    20388999.718    20389008.334
        51.500          42.2504
 121131369.324 6  94213319.807 7  22636300.401    22636300.701    22636318.680
        41.500          42.250
 12  3 25 10 49 50.0000000  0 20R12G02G05R02G13G29G23G04R10G20R18G30
                                R11R19R01G25G07R03G10R17
 123731124.662 7  96235326.667 6  23162724.026    23162725.447    23162746.945
        42.500          41.000
 110836590.533 8  86366175.80646  21091501.128    21091500.522    21091506.308
        49.250          41.5004
 127309267.382 6  99202026.70547  24226145.378    24226146.823    24226154.102
        40.500          29.7504
 103179435.240 8  80250677.006 8  19335783.934    19335784.363    19335801.127
        50.750          48.000
 108603917.783 8  84626428.34747  20666637.298    20666637.097    20666644.502
        51.500          43.2504
 127049534.525 7  98999635.60047  24176716.805    24176716.508    24176725.427
        47.500          34.7504
 112725253.437 8  87837822.35646  21450892.050    21450891.400    21450897.902
        53.000          41.0004
 110616351.256 8  86194541.12646  21049586.889    21049586.095    21049594.981
        50.500          41.7504
 120214778.899 7  93500393.905 6  22551992.940    22551993.024    22552014.153
        47.250          36.500
 130549974.904 5 101727250.92643  24842832.791    24842833.555    24842847.013
        34.500          20.0004
 109068678.631 8  84831197.202 7  20432243.494    20432242.808    20432261.695
        50.500          45.000
 127033065.296 6  98986794.77444  24173582.730    24173580.685    24173591.649
        41.000          27.2504
 112266163.849 7  87318167.600 6  21009092.168    21009092.126    21009110.440
        45.250          38.500
 117253698.795 7  91197325.882 7  21919344.265    21919343.407    21919360.226
        47.500          42.500
 118692907.399 7  92316653.064 6  22203951.419    22203951.042    22203973.622
        44.500          37.000
 131435556.431 7 102417280.36646  25011346.527    25011345.040    25011356.075
        43.500          24.2504
 130654307.879 7 101808549.91047  24862685.347    24862684.810    24862696.095
        44.500          35.0004
 112538322.390 8  87529818.792 8  21023109.366    21023108.746    21023125.774
        50.000          46.750
 107141015.393 8  83486506.71947  20388257.030    20388255.645    20388264.228
        50.750          42.2504
 121180758.993 7  94251733.952 7  22645533.343    22645530.993    22645547.761
        43.250          41.000
 12  3 25 10 50  0.0000000  0 20R12G02G05R02G13G29G23G04R10G20R18G30
                                R11R19R01G25G07R03G10R17
 123694098.478 7  96206528.561 6  23155794.491    23155793.676    23155815.111
        44.000          41.250
 110830607.473 8  86361513.67946  21090362.690    21090361.718    21090367.453
        49.500          41.5004
 127278658.886 6  99178175.98247  24220322.002    24220321.549    24220328.972
        39.750          29.0004
 103189542.693 8  80258538.348 8  19337678.913    19337678.350    19337694.784
        51.500          48.000
 108602480.802 8  84625308.62347  20666364.394    20666363.314    20666371.295
        51.250          42.7504
 127029555.369 7  98984067.43447  24172914.642    24172914.061    24172923.022
        46.500          33.2504
 112746769.712 8  87854588.28046  21454986.547    21454985.995    21454992.321
        53.250          41.2504
 110640494.208 8  86213353.81046  21054181.164    21054180.522    21054189.054
        50.000          41.7504
 120251488.013 8  93528945.421 6  22558879.455    22558879.482    22558900.566
        48.500          36.000
 130593656.829 6 101761288.75643  24851148.506    24851147.556    24851158.507
        36.500          20.5004
 109086061.985 8  84844717.582 7  20435499.474    20435499.411    20435517.968
        50.500          44.750
 127019067.080 6  98975887.14944  24170918.076    24170916.703    24170928.532
        40.250          26.2504
 112263469.945 7  87316072.357 6  21008588.319    21008588.478    21008605.353
        45.250          38.500
 117229403.247 7  91178429.347 7  21914801.938    21914801.953    21914818.433
        47.750          42.750
 118736943.113 7  92350903.036 6  22212190.564    22212189.548    22212208.840
        43.750          37.500
 131467583.455 7 102442236.57546  25017441.356    25017440.888    25017451.090
        44.000          24.7504
 130622591.638 7 101783836.04547  24856649.350    24856649.116    24856660.145
        43.500          35.7504
 112512076.478 8  87509405.329 8  21018205.328    21018205.742    21018222.177
        50.500          46.500
 107137165.986 8  83483507.17747  20387524.694    20387523.138    20387531.724
        51.500          42.2504
 121230179.692 7  94290172.252 7  22654765.539    22654766.235    22654783.152
        44.000          41.000
 12  3 25 10 50 10.0000000  0 20R12G02G05R02G13G29G23G04R10G20R18G30
                                R11R19R01G25G07R03G10R17
 123657103.409 7  96177754.653 6  23148869.327    23148868.266    23148889.956
        44.750          41.000
 110824685.504 8  86356899.15746  21089235.977    21089234.903    21089240.827
        49.750          41.5004
 127248065.374 6  99154336.92147  24214499.178    24214499.649    24214506.841
        40.000          27.2504
 103199720.969 8  80266454.788 8  19339585.932    19339585.893    19339602.349
        51.250          48.000
 108601113.453 8  84624243.16447  20666103.910    20666103.056    20666110.769
        51.500          42.5004
 127009623.462 7  98968536.09147  24169122.580    24169121.476    24169130.056
        47.000          34.0004
 112768343.363 8  87871398.90646  21459091.971    21459091.401    21459097.745
        53.250          41.2504
 110664696.256 8  86232212.54046  21058786.090    21058785.904    21058794.643
        50.000          41.5004
 120288264.397 8  93557549.261 6  22565779.295    22565778.878    22565798.398
        48.250          35.500
 130637346.617 6 101795332.66843  24859461.379    24859462.140    24859472.363
        37.000          18.7504
 109103536.589 8  84858308.949 7  20438772.671    20438772.461    20438791.303
        50.000          44.750
 127005129.233 6  98965026.49544  24168267.275    24168263.788    24168276.125
        40.000          26.2504
 112260872.074 7  87314051.793 6  21008102.652    21008101.060    21008119.974
        46.000          38.500
 117205175.177 8  91159585.294 7  21910272.158    21910272.821    21910289.516
        48.250          43.000
 118781004.283 7  92385172.802 6  22220432.788    22220432.162    22220450.383
        44.500          37.500
 131499652.396 7 102467225.40746  25023544.057    25023542.804    25023554.813
        44.500          25.7504
 130590886.515 7 101759130.79247  24850616.737    24850616.185    24850626.984
        44.000          35.7504
 112485873.306 8  87489025.096 7  21013310.677    21013310.650    21013327.528
        50.750          46.500
 107133377.823 8  83480555.35747  20386803.678    20386802.000    20386810.541
        51.500          42.2504
 121279632.189 7  94328635.278 7  22664007.172    22664007.907    22664024.263
        44.000          40.500
 12  3 25 10 50 20.0000000  0 20R12G02G05R02G13G29G23G04R10G20R18G30
                                R11R19R01G25G07R03G10R17
 123620137.950 7  96149003.765 6  23141945.357    23141948.468    23141969.079
        42.750          40.250
 110818822.997 8  86352330.97646  21088119.649    21088119.130    21088125.228
        50.250          41.7504
 127217485.221 6  99130508.23346  24208680.578    24208681.193    24208686.079
        40.750          26.0004
 103209968.158 8  80274424.820 8  19341506.328    19341506.265    19341522.855
        51.250          48.000
 108599814.074 8  84623230.65747  20665856.353    20665855.808    20665863.755
        51.250          42.5004
 126989737.207 7  98953040.35047  24165337.448    24165337.928    24165346.559
        47.500          34.5004
 112789972.490 8  87888252.77046  21463207.504    21463207.225    21463213.541
        53.000          41.5004
 110688955.722 8  86251116.01646  21063403.310    21063402.387    21063410.955
        50.000          41.7504
 120325106.180 8  93586203.973 6  22572691.511    22572690.366    22572710.820
        48.750          35.750
 130681042.396 6 101829381.31943  24867776.288    24867776.375    24867788.100
        37.250          19.0004
 109121100.666 8  84871969.895 7  20442062.618    20442063.286    20442082.134
        50.250          44.750
 126991249.879 6  98954211.41144  24165625.312    24165621.480    24165634.371
        39.000          26.2504
 112258368.696 7  87312104.739 6  21007631.705    21007632.859    21007651.764
        47.000          38.250
 117181013.265 8  91140792.705 7  21905755.212    21905756.013    21905773.182
        48.000          42.500
 118825089.014 7  92419460.880 6  22228682.342    22228678.493    22228697.236
        44.000          37.250
 131531761.490 7 102492245.50446  25029653.611    25029653.150    25029665.120
        45.250          27.5004
 130559190.775 7 101734432.90547  24844585.623    24844584.850    24844595.301
        43.500          36.2504
 112459711.116 8  87468676.740 7  21008423.766    21008423.625    21008439.970
        51.250          46.000
 107129649.029 8  83477649.79947  20386093.740    20386092.661    20386101.331
        52.000          42.2504
 121329114.520 7  94367121.511 7  22673254.834    22673254.139    22673271.452
        45.000          40.750
 12  3 25 10 50 30.0000000  0 20R12G02G05R02G13G29G23G04R10G20R18G30
                                R11R19R01G25G07R03G10R17
 123583205.571 6  96120278.615 6  23135037.431    23135032.964    23135054.405
        37.750          39.750
 110813023.228 8  86347811.68146  21087015.939    21087015.885    21087021.629
        50.250          41.5004
 127186921.806 6  99106692.56747  24202864.913    24202864.278    24202872.066
        41.750          27.7504
 103220287.555 8  80282451.017 8  19343440.996    19343440.289    19343456.778
        51.250          48.000
 108598585.874 8  84622273.62347  20665622.752    20665622.128    20665629.881
        50.750          42.5004
 126969899.905 7  98937582.75047  24161561.922    24161562.692    24161571.734
        47.500          35.0004
 112811660.367 8  87905152.40546  21467334.797    21467334.399    21467340.562
        53.250          41.2504
 110713275.805 8  86270066.72846  21068031.171    21068030.484    21068038.635
        50.000          41.5004
 120362016.539 8  93614912.054 5  22579615.005    22579614.273    22579633.340
        49.500          35.500
 130724747.496 6 101863437.19043  24876094.326    24876092.902    24876104.147
        36.750          18.5004
 109138757.333 8  84885702.850 7  20445371.841    20445370.959    20445388.962
        49.750          44.750
 126977432.473 6  98943444.65144  24162991.893    24162995.220    24163005.105
        37.250          25.5004
 112255963.000 7  87310233.645 6  21007182.103    21007182.280    21007201.188
        46.000          37.750
 117156920.859 7  91122054.159 7  21901254.464    21901252.279    21901269.091
        47.500          43.000
 118869200.576 7  92453769.863 6  22236932.478    22236930.901    22236950.130
        43.500          37.250
 131563913.954 7 102517299.46646  25035772.918    25035771.179    25035782.748
        45.250          27.2504
 130527507.883 7 101709745.00747  24838555.604    24838555.307    24838566.444
        45.000          36.5004
 112433593.424 8  87448362.992 7  21003544.752    21003544.773    21003560.299
        51.000          45.250
 107125982.978 8  83474793.14847  20385396.309    20385394.915    20385403.432
        51.750          42.2504
 121378629.839 7  94405633.398 7  22682507.958    22682508.117    22682524.486
        45.250          40.750
 12  3 25 10 50 40.0000000  0 20R12G02G05R02G13G29G23G04R10G20R18G30
                                R11R19R01G25G07R03G10R17
 123546308.650 5  96091581.169 6  23128123.797    23128123.299    23128148.536
        35.750          39.500
 110807288.620 8  86343343.14746  21085925.495    21085924.268    21085930.384
        50.250          41.2504
 127156377.515 7  99082891.80047  24197053.763    24197052.393    24197058.986
        42.250          29.2504
 103230681.659 8  80290535.310 8  19345388.652    19345388.283    19345404.520
        51.000          48.250
 108597431.238 8  84621373.90647  20665403.016    20665402.566    20665409.774
        50.750          42.5004
 126950114.009 7  98922165.19847  24157797.296    24157796.972    24157805.972
        47.000          34.5004
 112833409.282 8  87922099.60846  21471473.936    21471472.932    21471479.284
        53.250          41.5004
 110737658.740 8  86289066.41046  21072671.388    21072670.297    21072678.955
        50.250          41.7504
 120398997.725 8  93643675.247 6  22586551.243    22586551.789    22586572.085
        49.000          36.500
 130768464.251 6 101897502.15543  24884413.180    24884411.208    24884421.128
        38.750          18.5004
 109156509.101 8  84899509.777 7  20448696.164    20448696.824    20448714.601
        50.250          44.750
 126963679.574 6  98932728.14044  24160377.073    24160375.997    24160386.612
        39.500          25.7504
 112253657.527 7  87308440.509 6  21006751.209    21006752.012    21006768.585
        47.000          38.000
 117132900.388 8  91103371.574 7  21896764.724    21896761.819    21896778.731
        48.000          43.250
 118913341.226 7  92488101.425 6  22245189.869    22245188.531    22245207.451
        44.250          37.750
 131596112.002 7 102542388.88946  25041899.756    25041897.441    25041910.965
        45.250          28.7504
 130495840.315 7 101685069.05047  24832530.195    24832529.425    24832540.442
        45.250          36.5004
 112407522.642 8  87428085.715 7  20998673.931    20998674.455    20998690.749
        51.000          45.250
 107122382.097 8  83471987.25947  20384711.184    20384709.865    20384718.160
        51.750          42.0004
 121428180.427 7  94444172.728 7  22691766.416    22691767.510    22691784.107
        45.500          41.000
 12  3 25 10 50 50.0000000  0 20R12G02G05R02G13G29G23G04R10G20R18G30
                                R11R19R01G25G07R03G10R17
 123509446.219 6  96062910.471 6  23121227.227    23121225.654    23121247.374
        41.000          39.500
 110801617.828 8  86338924.35946  21084845.540    21084845.066    21084851.488
        50.000          41.5004
 127125850.984 7  99059104.90247  24191243.444    24191243.291    24191250.444
        43.750          31.0004
 103241149.020 8  80298676.587 8  19347351.333    19347349.706    19347366.152
        51.000          48.500
 108596348.766 8  84620530.41447  20665196.957    20665196.405    20665204.014
        50.750          42.2504
 126930378.154 7  98906786.62247  24154041.862    24154040.971    24154051.413
        46.250          34.7504
 112855217.752 8  87939093.21246  21475623.516    21475622.770    21475629.401
        53.000          41.5004
 110762103.197 8  86308114.03547  21077322.545    21077322.347    21077330.691
        50.500          42.0004
 120436048.106 8  93672492.194 6  22593502.018    22593502.468    22593521.202
        48.000          37.750
 130812191.186 6 101931575.02243  24892734.741    24892735.578    24892743.171
        38.750          18.7504
 109174354.351 8  84913389.418 7  20452039.231    20452039.588    20452058.280
        50.250          45.000
 126949989.706 6  98922060.78844  24157771.694    24157772.128    24157781.587
        39.500          26.0004
 112251450.867 8  87306724.203 6  21006339.276    21006338.937    21006355.267
        48.500          37.750
 117108950.798 8  91084744.115 7  21892283.127    21892284.902    21892301.081
        48.250          42.750
 118957509.574 7  92522454.547 6  22253452.385    22253450.677    22253468.538
        44.500          37.250
 131628354.032 7 102567512.48946  25048035.329    25048033.030    25048045.762
        44.250          28.5004
 130464186.763 7 101660404.02147  24826505.956    24826505.794    24826517.045
        46.500          36.2504
 112381497.615 8  87407844.028 7  20993811.105    20993813.012    20993828.901
        51.250          44.750
 107118844.974 8  83469231.06247  20384038.054    20384036.822    20384044.811
        52.000          42.2504
 121477764.772 7  94482738.312 7  22701032.539    22701032.884    22701049.876
        43.500          41.250
 12  3 25 10 51  0.0000000  0 20R12G02G05R02G13G29G23G04R10G20R18G30
                                R11R19R01G25G07R03G10R17
 123472617.907 7  96034266.275 6  23114332.199    23114331.087    23114351.844
        43.250          39.250
 110796010.403 8  86334554.93846  21083778.417    21083778.264    21083784.425
        50.250          41.5004
 127095341.802 7  99035331.49647  24185438.628    24185437.987    24185444.630
        43.750          32.0004
 103251689.011 8  80306874.345 8  19349328.393    19349324.918    19349341.281
        51.000          48.250
 108595337.986 8  84619742.80147  20665004.715    20665003.992    20665011.673
        50.500          42.5004
 126910691.840 7  98891446.65247  24150295.769    24150296.027    24150303.980
        46.250          34.2504
 112877085.182 8  87956132.76746  21479784.606    21479783.784    21479790.997
        53.500          41.7504
 110786608.363 8  86327208.96647  21081985.505    21081985.457    21081993.836
        50.750          42.0004
 120473166.965 8  93701362.406 6  22600466.943    22600465.318    22600484.433
        49.000          38.750
 130855927.562 6 101965655.28643  24901056.335    24901057.649    24901066.927
        37.500          20.5004
 109192292.513 8  84927341.314 7  20455400.420    20455400.093    20455418.183
        50.250          45.250
 126936362.748 6  98911442.30644  24155179.778    24155178.468    24155188.256
        40.000          26.7504
 112249342.627 8  87305084.467 6  21005944.578    21005944.452    21005961.418
        48.750          37.250
 117085071.557 8  91066171.364 7  21887819.730    21887821.136    21887837.193
        48.500          43.250
 119001704.949 7  92556828.691 6  22261720.395    22261719.642    22261737.672
        44.250          37.000
 131660639.456 7 102592669.91746  25054178.775    25054177.381    25054188.914
        42.250          27.0004
 130432546.822 7 101635749.60847  24820484.651    24820485.164    24820496.214
        46.000          36.2504
 112355517.704 8  87387637.438 7  20988959.063    20988959.708    20988974.922
        50.500          44.500
 107115371.110 8  83466524.15047  20383377.063    20383375.717    20383383.799
        51.500          42.0004
 121527382.137 7  94521329.558 7  22710301.570    22710305.675    22710322.979
        43.500          41.500
 12  3 25 10 51 10.0000000  0 20R12G02G05R02G13G29G23G04R10G20R18G30
                                R11R19R01G25G07R03G10R17
 123435818.380 7  96005644.423 6  23107442.746    23107443.622    23107463.072
        43.250          39.250
 110790461.171 8  86330230.86046  21082722.281    21082722.113    21082728.334
        49.250          41.5004
 127064844.681 7  99011567.51647  24179635.222    24179635.045    24179643.163
        43.250          33.2504
 103262296.277 8  80315124.433 8  19351313.891    19351312.671    19351329.064
        51.250          48.250
 108594393.613 8  84619006.91847  20664824.869    20664824.111    20664832.121
        50.750          42.5004
 126891049.993 7  98876141.32647  24146558.239    24146558.625    24146566.315
        46.000          33.5004
 112899006.218 8  87973214.07747  21483956.436    21483955.774    21483962.153
        53.000          42.0004
 110811169.110 8  86346347.19647  21086659.389    21086659.135    21086667.685
        50.250          42.5004
 120510348.880 8  93730281.685 6  22607439.993    22607440.778    22607460.133
        49.000          38.500
 130899668.138 6 101999738.79843  24909377.828    24909380.697    24909389.624
        37.750          21.2504
 109210318.311 8  84941361.379 7  20458776.272    20458776.758    20458795.210
        50.000          44.750
 126922793.062 6  98900868.58444  24152596.781    24152595.819    24152606.749
        40.750          27.0004
 112247327.360 8  87303517.011 6  21005568.174    21005567.817    21005585.891
        48.000          37.500
 117061257.394 7  91047649.245 7  21883369.958    21883369.299    21883385.742
        47.500          43.500
 119045921.781 7  92591219.516 6  22269992.187    22269990.736    22270009.102
        43.750          36.500
 131692963.113 6 102617857.17146  25060328.259    25060327.863    25060341.228
        41.250          25.2504
 130400915.246 7 101611101.69547  24814466.491    24814465.982    24814476.660
        45.750          36.5004
 112329577.643 8  87367461.831 7  20984114.933    20984113.907    20984129.011
        51.000          44.000
 107111955.272 8  83463862.45047  20382726.759    20382725.572    20382734.020
        52.000          42.0004
 121577026.832 7  94559942.062 7  22719578.090    22719581.817    22719600.854
        42.750          42.000
 12  3 25 10 51 20.0000000  0 20R12G02G05R02G13G29G23G04R10G20R18G30
                                R11R19R01G25G07R03G10R17
 123399050.795 6  95977047.447 6  23100559.643    23100560.159    23100581.666
        41.500          38.750
 110784973.108 8  86325954.44646  21081678.701    21081678.134    21081684.241
        50.250          41.5004
 127034362.673 6  98987815.32647  24173835.149    24173833.923    24173841.874
        41.750          32.5004
 103272973.789 8  80323429.159 8  19353312.904    19353313.591    19353330.352
        51.750          48.250
 108593518.599 8  84618325.09247  20664658.434    20664657.825    20664665.551
        51.000          42.2504
 126871455.675 7  98860873.04247  24142828.988    24142829.825    24142837.472
        45.500          33.7504
 112920983.842 8  87990339.49446  21488138.634    21488138.328    21488144.612
        52.750          41.7504
 110835788.215 8  86365530.91747  21091343.827    21091343.898    21091352.544
        50.500          42.2504
 120547596.662 7  93759252.188 6  22614427.268    22614428.446    22614449.258
        47.750          38.750
 130943415.792 6 102033827.81343  24917706.014    24917702.656    24917715.952
        37.500          21.2504
 109228434.687 8  84955451.897 7  20462171.155    20462170.795    20462189.226
        50.250          45.000
 126909283.897 7  98890341.95144  24150027.284    24150026.364    24150035.339
        44.000          27.2504
 112245408.144 7  87302024.285 6  21005209.436    21005209.064    21005226.740
        47.750          37.500
 117037511.364 7  91029180.133 7  21878930.248    21878929.735    21878946.727
        47.500          43.250
 119090163.084 7  92625629.404 6  22278267.808    22278266.240    22278285.376
        43.750          36.250
 131725327.629 6 102643076.23046  25066488.925    25066488.007    25066498.938
        41.500          24.2504
 130369295.113 7 101586462.70947  24808448.673    24808449.108    24808458.851
        46.000          36.2504
 112303680.343 8  87347319.485 7  20979274.310    20979275.878    20979291.389
        50.500          44.250
 107108600.434 8  83461248.29046  20382088.804    20382087.251    20382095.600
        51.500          41.7504
 121626701.894 7  94598578.181 7  22728863.029    22728865.322    22728883.579
        43.250          43.000
 12  3 25 10 51 30.0000000  0 20R12G02G05R02G13G29G23G04R10G20R18G30
                                R11R19R01G25G07R03G10R17
 123362321.239 5  95948480.070 6  23093683.403    23093681.193    23093705.335
        34.500          38.250
 110779552.078 8  86321730.25646  21080646.539    21080646.380    21080652.490
        50.500          41.7504
 127003901.639 6  98964079.47647  24168037.208    24168036.740    24168045.515
        39.750          30.7504
 103283727.354 8  80331793.038 8  19355329.401    19355328.859    19355345.713
        51.500          48.250
 108592718.855 8  84617701.91447  20664505.734    20664505.899    20664513.280
        51.000          42.5004
 126851914.858 7  98845646.41447  24139110.791    24139111.892    24139119.075
        46.500          33.7504
 112943023.800 8  88007513.47646  21492332.644    21492332.140    21492338.280
        52.750          41.7504
 110860471.490 8  86384764.63547  21096041.694    21096041.209    21096049.582
        50.500          42.0004
 120584915.990 7  93788278.329 6  22621428.579    22621428.834    22621449.978
        47.750          39.250
 130987176.412 6 102067926.96043  24926033.895    24926030.840    24926042.343
        38.750          21.2504
 109246647.477 8  84969617.382 7  20465582.679    20465583.033    20465600.978
        49.750          45.000
 126895841.132 6  98879867.11444  24147467.320    24147467.209    24147478.218
        40.750          26.7504
 112243590.981 7  87300610.935 6  21004869.343    21004868.878    21004885.540
        47.250          37.250
 117013839.726 7  91010768.867 7  21874504.870    21874505.203    21874521.797
        47.500          43.500
 119134434.778 7  92660062.931 6  22286549.848    22286548.220    22286567.406
        44.000          35.750
 131757738.802 7 102668331.67146  25072656.633    25072654.660    25072666.655
        42.500          24.7504
 130337692.376 7 101561837.25047  24802434.921    24802434.744    24802444.940
        46.500          36.5004
 112277832.029 8  87327215.225 7  20974448.835    20974447.324    20974462.524
        50.500          43.500
 107105312.388 8  83458686.17447  20381462.675    20381461.530    20381470.008
        51.250          42.0004
 121676413.132 7  94637242.430 7  22738152.284    22738154.988    22738173.635
        43.500          43.750
 12  3 25 10 51 40.0000000  0 20R12G02G05R02G13G29G23G04R10G20R18G30
                                R11R19R01G25G07R03G10R17
 123325621.521 6  95919936.032 6  23086813.428    23086809.533    23086834.257
        37.750          38.000
 110774190.013 8  86317552.02547  21079626.555    21079626.183    21079631.808
        50.250          42.0004
 126973453.523 6  98940353.71347  24162244.159    24162242.067    24162251.747
        38.750          30.5004
 103294548.971 8  80340209.846 8  19357358.124    19357356.913    19357373.293
        51.750          48.000
 108591986.290 8  84617131.08347  20664366.469    20664366.406    20664373.640
        51.500          42.5004
 126832419.462 7  98830455.19747  24135400.980    24135400.260    24135409.581
        46.250          33.7504
 112965117.887 8  88024729.64047  21496537.014    21496536.424    21496542.809
        53.250          42.0004
 110885210.765 8  86404041.99446  21100749.029    21100748.490    21100757.382
        50.250          41.7504
 120622298.687 7  93817353.745 6  22628440.551    22628441.852    22628463.335
        46.750          39.500
 131030941.735 6 102102029.77243  24934359.044    24934359.824    24934370.553
        38.250          22.5004
 109264947.951 8  84983851.090 7  20469011.405    20469010.926    20469029.372
        50.250          45.250
 126882456.933 7  98869437.86244  24144922.562    24144920.907    24144932.695
        43.000          27.7504
 112241867.656 7  87299270.580 6  21004546.028    21004545.639    21004564.544
        47.000          37.500
 116990234.320 8  90992409.132 7  21870092.759    21870091.805    21870108.696
        48.250          43.750
 119178728.622 7  92694513.662 6  22294836.414    22294835.116    22294853.829
        42.750          35.750
 131790188.481 6 102693617.14146  25078831.107    25078828.475    25078842.239
        40.750          22.7504
 130306099.013 7 101537219.10547  24796423.503    24796422.343    24796433.408
        45.000          36.0004
 112252024.563 8  87307142.738 7  20969627.477    20969626.089    20969641.408
        51.000          44.250
 107102083.160 8  83456169.89247  20380848.235    20380847.066    20380855.415
        50.750          42.0004
 121726152.056 7  94675928.199 7  22747446.881    22747450.359    22747468.436
        44.000          43.500
